| time (UTC) | temp C | wind direction | speed KPH | gust KPH | rain 1hr cm | rain 24hr cm | rain mn cm | humidity % | barometer mb |
| 20260507162306 | 13 | 176 | 12.9 | 20.9 | 0.00 | 0.00 | 0.00 | 56 | |
| 20260507162224 | 13 | 175 | 12.9 | 20.9 | 0.00 | 0.00 | 0.00 | 56 | |
| 20260507162123 | 13 | 175 | 11.3 | 20.9 | 0.00 | 0.00 | 0.00 | 56 | |
| 20260507162002 | 13 | 174 | 11.3 | 20.9 | 0.00 | 0.00 | 0.00 | 56 | |
| 20260507161902 | 13 | 174 | 11.3 | 20.9 | 0.00 | 0.00 | 0.00 | 56 | |
| 20260507161802 | 13 | 173 | 11.3 | 20.9 | 0.00 | 0.00 | 0.00 | 56 | |
| 20260507161702 | 13 | 173 | 11.3 | 20.9 | 0.00 | 0.00 | 0.00 | 56 | |
| 20260507161602 | 13 | 173 | 9.7 | 20.9 | 0.00 | 0.00 | 0.00 | 56 | |
| 20260507161502 | 13 | 174 | 9.7 | 19.3 | 0.00 | 0.00 | 0.00 | 56 | |
| 20260507161402 | 13 | 177 | 11.3 | 19.3 | 0.00 | 0.00 | 0.00 | 56 | |
| 20260507161302 | 14 | 178 | 11.3 | 19.3 | 0.00 | 0.00 | 0.00 | 55 | |
| 20260507161202 | 14 | 179 | 11.3 | 19.3 | 0.00 | 0.00 | 0.00 | 56 | |
| 20260507161102 | 14 | 181 | 11.3 | 19.3 | 0.00 | 0.00 | 0.00 | 55 | |
| 20260507161002 | 14 | 182 | 11.3 | 19.3 | 0.00 | 0.00 | 0.00 | 55 | |
| 20260507160923 | 14 | 182 | 11.3 | 19.3 | 0.00 | 0.00 | 0.00 | 55 | |
| 20260507160802 | 14 | 183 | 11.3 | 20.9 | 0.00 | 0.00 | 0.00 | 56 | |
| 20260507160702 | 14 | 183 | 11.3 | 20.9 | 0.00 | 0.00 | 0.00 | 56 | |
| 20260507160623 | 14 | 183 | 11.3 | 20.9 | 0.00 | 0.00 | 0.00 | 56 | |
| 20260507160502 | 14 | 186 | 12.9 | 20.9 | 0.00 | 0.00 | 0.00 | 56 | |
| 20260507160402 | 14 | 188 | 12.9 | 20.9 | 0.00 | 0.00 | 0.00 | 56 | |
| 20260507160302 | 13 | 189 | 12.9 | 20.9 | 0.00 | 0.00 | 0.00 | 56 | |
| 20260507160223 | 13 | 190 | 12.9 | 20.9 | 0.00 | 0.00 | 0.00 | 57 | |
| 20260507160002 | 13 | 192 | 12.9 | 20.9 | 0.00 | 0.00 | 0.00 | 57 | |
| 20260507155902 | 13 | 194 | 12.9 | 20.9 | 0.00 | 0.00 | 0.00 | 58 | |
| 20260507155802 | 13 | 193 | 12.9 | 19.3 | 0.00 | 0.00 | 0.00 | 57 | |
| 20260507155702 | 14 | 193 | 12.9 | 19.3 | 0.00 | 0.00 | 0.00 | 58 | |
| 20260507155602 | 14 | 195 | 12.9 | 19.3 | 0.00 | 0.00 | 0.00 | 59 | |
| 20260507155502 | 14 | 194 | 12.9 | 19.3 | 0.00 | 0.00 | 0.00 | 59 | |
| 20260507155402 | 14 | 193 | 12.9 | 19.3 | 0.00 | 0.00 | 0.00 | 59 | |
| 20260507155323 | 14 | 192 | 12.9 | 19.3 | 0.00 | 0.00 | 0.00 | 59 | |
| 20260507155202 | 14 | 192 | 12.9 | 19.3 | 0.00 | 0.00 | 0.00 | 59 | |
| 20260507155102 | 14 | 193 | 12.9 | 19.3 | 0.00 | 0.00 | 0.00 | 58 | |
| 20260507155002 | 14 | 193 | 12.9 | 19.3 | 0.00 | 0.00 | 0.00 | 57 | |
| 20260507154923 | 14 | 192 | 11.3 | 19.3 | 0.00 | 0.00 | 0.00 | 57 | |
| 20260507154823 | 14 | 193 | 11.3 | 17.7 | 0.00 | 0.00 | 0.00 | 58 | |
| 20260507154702 | 14 | 195 | 11.3 | 17.7 | 0.00 | 0.00 | 0.00 | 57 | |
| 20260507154602 | 14 | 193 | 11.3 | 17.7 | 0.00 | 0.00 | 0.00 | 55 | |
| 20260507154502 | 14 | 193 | 11.3 | 17.7 | 0.00 | 0.00 | 0.00 | 55 | |
| 20260507154402 | 14 | 191 | 9.7 | 17.7 | 0.00 | 0.00 | 0.00 | 57 | |
| 20260507154323 | 14 | 191 | 9.7 | 17.7 | 0.00 | 0.00 | 0.00 | 57 | |
| 20260507154203 | 14 | 186 | 9.7 | 16.1 | 0.00 | 0.00 | 0.00 | 57 | |
| 20260507154102 | 14 | 182 | 9.7 | 16.1 | 0.00 | 0.00 | 0.00 | 56 | |
| 20260507154002 | 14 | 179 | 9.7 | 14.5 | 0.00 | 0.00 | 0.00 | 56 | |
| 20260507153923 | 14 | 178 | 9.7 | 14.5 | 0.00 | 0.00 | 0.00 | 57 | |
| 20260507153802 | 14 | 172 | 9.7 | 14.5 | 0.00 | 0.00 | 0.00 | 57 | |
| 20260507153702 | 14 | 171 | 9.7 | 16.1 | 0.00 | 0.00 | 0.00 | 54 | |
| 20260507153602 | 14 | 172 | 9.7 | 16.1 | 0.00 | 0.00 | 0.00 | 55 | |
| 20260507153502 | 14 | 174 | 11.3 | 19.3 | 0.00 | 0.00 | 0.00 | 56 | |
| 20260507153423 | 14 | 177 | 11.3 | 19.3 | 0.00 | 0.00 | 0.00 | 55 | |
| 20260507153323 | 14 | 180 | 11.3 | 19.3 | 0.00 | 0.00 | 0.00 | 55 | |
| 20260507153202 | 14 | 186 | 12.9 | 20.9 | 0.00 | 0.00 | 0.00 | 56 | |
| 20260507153123 | 14 | 187 | 12.9 | 20.9 | 0.00 | 0.00 | 0.00 | 55 | |
| 20260507153002 | 14 | 189 | 12.9 | 20.9 | 0.00 | 0.00 | 0.00 | 54 | |
| 20260507152902 | 14 | 190 | 12.9 | 20.9 | 0.00 | 0.00 | 0.00 | 55 | |
| 20260507152802 | 14 | 190 | 12.9 | 20.9 | 0.00 | 0.00 | 0.00 | 55 | |
| 20260507152702 | 14 | 190 | 11.3 | 20.9 | 0.00 | 0.00 | 0.00 | 56 | |
| 20260507152602 | 14 | 188 | 11.3 | 20.9 | 0.00 | 0.00 | 0.00 | 57 | |
| 20260507152502 | 14 | 184 | 11.3 | 20.9 | 0.00 | 0.00 | 0.00 | 55 | |
| 20260507152423 | 14 | 182 | 11.3 | 20.9 | 0.00 | 0.00 | 0.00 | 54 | |
| 20260507152305 | 14 | 178 | 11.3 | 20.9 | 0.00 | 0.00 | 0.00 | 54 | |
| 20260507152202 | 14 | 175 | 9.7 | 20.9 | 0.00 | 0.00 | 0.00 | 54 | |
| 20260507152102 | 14 | 173 | 9.7 | 16.1 | 0.00 | 0.00 | 0.00 | 57 | |
| 20260507152023 | 14 | 172 | 9.7 | 16.1 | 0.00 | 0.00 | 0.00 | 56 | |
| 20260507151923 | 14 | 171 | 9.7 | 16.1 | 0.00 | 0.00 | 0.00 | 55 | |
| 20260507151803 | 14 | 172 | 9.7 | 16.1 | 0.00 | 0.00 | 0.00 | 56 | |
| 20260507151702 | 14 | 172 | 9.7 | 16.1 | 0.00 | 0.00 | 0.00 | 55 | |
| 20260507151602 | 14 | 175 | 9.7 | 16.1 | 0.00 | 0.00 | 0.00 | 55 | |
| 20260507151502 | 14 | 175 | 9.7 | 16.1 | 0.00 | 0.00 | 0.00 | 56 | |
| 20260507151402 | 14 | 173 | 11.3 | 20.9 | 0.00 | 0.00 | 0.00 | 56 | |
| 20260507151302 | 14 | 174 | 11.3 | 20.9 | 0.00 | 0.00 | 0.00 | 55 | |
| 20260507151202 | 14 | 174 | 11.3 | 20.9 | 0.00 | 0.00 | 0.00 | 56 | |
| 20260507151123 | 14 | 174 | 11.3 | 20.9 | 0.00 | 0.00 | 0.00 | 56 | |
| 20260507151002 | 14 | 174 | 11.3 | 20.9 | 0.00 | 0.00 | 0.00 | 57 | |
| 20260507150902 | 14 | 174 | 11.3 | 20.9 | 0.00 | 0.00 | 0.00 | 58 | |
| 20260507150802 | 14 | 172 | 11.3 | 20.9 | 0.00 | 0.00 | 0.00 | 58 | |
| 20260507150702 | 14 | 171 | 11.3 | 20.9 | 0.00 | 0.00 | 0.00 | 57 | |
| 20260507150602 | 14 | 170 | 11.3 | 20.9 | 0.00 | 0.00 | 0.00 | 56 | |
| 20260507150502 | 14 | 169 | 11.3 | 20.9 | 0.00 | 0.00 | 0.00 | 56 | |
| 20260507150402 | 14 | 172 | 11.3 | 16.1 | 0.00 | 0.00 | 0.00 | 57 | |
| 20260507150302 | 14 | 172 | 9.7 | 16.1 | 0.00 | 0.00 | 0.00 | 57 | |
| 20260507150203 | 14 | 171 | 9.7 | 16.1 | 0.00 | 0.00 | 0.00 | 58 | |
| 20260507150002 | 14 | 171 | 8.0 | 14.5 | 0.00 | 0.00 | 0.00 | 57 | |
| 20260507145924 | 14 | 170 | 8.0 | 14.5 | 0.00 | 0.00 | 0.00 | 57 | |
| 20260507145802 | 14 | 171 | 8.0 | 14.5 | 0.00 | 0.00 | 0.00 | 58 | |
| 20260507145702 | 14 | 167 | 8.0 | 14.5 | 0.00 | 0.00 | 0.00 | 57 | |
| 20260507145602 | 14 | 165 | 8.0 | 14.5 | 0.00 | 0.00 | 0.00 | 58 | |
| 20260507145502 | 14 | 166 | 6.4 | 14.5 | 0.00 | 0.00 | 0.00 | 58 | |
| 20260507145402 | 13 | 164 | 6.4 | 14.5 | 0.00 | 0.00 | 0.00 | 57 | |
| 20260507145306 | 13 | 165 | 6.4 | 14.5 | 0.00 | 0.00 | 0.00 | 58 | |
| 20260507145202 | 13 | 165 | 8.0 | 14.5 | 0.00 | 0.00 | 0.00 | 56 | |
| 20260507145102 | 13 | 166 | 8.0 | 14.5 | 0.00 | 0.00 | 0.00 | 56 | |
| 20260507145002 | 13 | 167 | 9.7 | 14.5 | 0.00 | 0.00 | 0.00 | 55 | |
| 20260507144902 | 13 | 171 | 9.7 | 14.5 | 0.00 | 0.00 | 0.00 | 55 | |
| 20260507144802 | 13 | 174 | 9.7 | 14.5 | 0.00 | 0.00 | 0.00 | 57 | |
| 20260507144702 | 13 | 181 | 9.7 | 14.5 | 0.00 | 0.00 | 0.00 | 57 | |
| 20260507144602 | 13 | 184 | 9.7 | 14.5 | 0.00 | 0.00 | 0.00 | 57 | |
| 20260507144502 | 13 | 185 | 9.7 | 14.5 | 0.00 | 0.00 | 0.00 | 57 | |
| 20260507144423 | 13 | 186 | 9.7 | 14.5 | 0.00 | 0.00 | 0.00 | 57 | |
| 20260507144302 | 13 | 186 | 9.7 | 14.5 | 0.00 | 0.00 | 0.00 | 56 | |
| 20260507144202 | 13 | 188 | 9.7 | 14.5 | 0.00 | 0.00 | 0.00 | 57 | |
| 20260507144102 | 13 | 188 | 8.0 | 14.5 | 0.00 | 0.00 | 0.00 | 58 | |
| 20260507144002 | 13 | 189 | 8.0 | 14.5 | 0.00 | 0.00 | 0.00 | 58 | |
| 20260507143902 | 13 | 190 | 8.0 | 14.5 | 0.00 | 0.00 | 0.00 | 58 | |
| 20260507143803 | 13 | 190 | 8.0 | 14.5 | 0.00 | 0.00 | 0.00 | 60 | |
| 20260507143723 | 13 | 190 | 8.0 | 14.5 | 0.00 | 0.00 | 0.00 | 58 | |
| 20260507143602 | 13 | 189 | 8.0 | 14.5 | 0.00 | 0.00 | 0.00 | 58 | |
| 20260507143523 | 13 | 190 | 9.7 | 14.5 | 0.00 | 0.00 | 0.00 | 59 | |
| 20260507143423 | 13 | 191 | 9.7 | 14.5 | 0.00 | 0.00 | 0.00 | 58 | |
| 20260507143302 | 13 | 191 | 9.7 | 16.1 | 0.00 | 0.00 | 0.00 | 59 | |
| 20260507143202 | 13 | 191 | 9.7 | 16.1 | 0.00 | 0.00 | 0.00 | 58 | |
| 20260507143103 | 13 | 192 | 9.7 | 16.1 | 0.00 | 0.00 | 0.00 | 58 | |
| 20260507143023 | 13 | 192 | 9.7 | 16.1 | 0.00 | 0.00 | 0.00 | 57 | |
| 20260507142903 | 13 | 192 | 9.7 | 16.1 | 0.00 | 0.00 | 0.00 | 57 | |
| 20260507142802 | 13 | 191 | 9.7 | 16.1 | 0.00 | 0.00 | 0.00 | 57 | |
| 20260507142702 | 13 | 192 | 9.7 | 16.1 | 0.00 | 0.00 | 0.00 | 58 | |
| 20260507142602 | 13 | 191 | 9.7 | 16.1 | 0.00 | 0.00 | 0.00 | 58 | |
| 20260507142502 | 13 | 189 | 9.7 | 16.1 | 0.00 | 0.00 | 0.00 | 59 | |
| 20260507142402 | 13 | 187 | 9.7 | 16.1 | 0.00 | 0.00 | 0.00 | 58 | |
| 20260507142306 | 13 | 187 | 9.7 | 16.1 | 0.00 | 0.00 | 0.00 | 59 | |
| 20260507142202 | 13 | 187 | 9.7 | 16.1 | 0.00 | 0.00 | 0.00 | 59 | |
| 20260507142123 | 13 | 186 | 9.7 | 16.1 | 0.00 | 0.00 | 0.00 | 58 | |
| 20260507142002 | 13 | 187 | 9.7 | 16.1 | 0.00 | 0.00 | 0.00 | 58 | |
| 20260507141902 | 13 | 188 | 9.7 | 16.1 | 0.00 | 0.00 | 0.00 | 58 | |
| 20260507141802 | 13 | 188 | 9.7 | 16.1 | 0.00 | 0.00 | 0.00 | 58 | |
| 20260507141702 | 13 | 186 | 11.3 | 16.1 | 0.00 | 0.00 | 0.00 | 58 | |
| 20260507141602 | 13 | 189 | 11.3 | 22.5 | 0.00 | 0.00 | 0.00 | 59 | |
| 20260507141502 | 13 | 192 | 12.9 | 22.5 | 0.00 | 0.00 | 0.00 | 59 | |
| 20260507141402 | 13 | 195 | 12.9 | 22.5 | 0.00 | 0.00 | 0.00 | 60 | |
| 20260507141302 | 13 | 195 | 12.9 | 22.5 | 0.00 | 0.00 | 0.00 | 59 | |
| 20260507141202 | 13 | 195 | 12.9 | 22.5 | 0.00 | 0.00 | 0.00 | 59 | |
| 20260507141102 | 13 | 197 | 12.9 | 22.5 | 0.00 | 0.00 | 0.00 | 60 | |
| 20260507141003 | 13 | 197 | 12.9 | 22.5 | 0.00 | 0.00 | 0.00 | 59 | |
| 20260507140902 | 13 | 198 | 12.9 | 22.5 | 0.00 | 0.00 | 0.00 | 60 | |
| 20260507140802 | 13 | 199 | 12.9 | 22.5 | 0.00 | 0.00 | 0.00 | 60 | |
| 20260507140723 | 13 | 201 | 12.9 | 22.5 | 0.00 | 0.00 | 0.00 | 61 | |
| 20260507140602 | 13 | 202 | 12.9 | 19.3 | 0.00 | 0.00 | 0.00 | 60 | |
| 20260507140502 | 13 | 203 | 11.3 | 19.3 | 0.00 | 0.00 | 0.00 | 59 | |
| 20260507140403 | 13 | 201 | 11.3 | 16.1 | 0.00 | 0.00 | 0.00 | 60 | |
| 20260507140302 | 13 | 202 | 11.3 | 16.1 | 0.00 | 0.00 | 0.00 | 60 | |
| 20260507140202 | 13 | 202 | 11.3 | 16.1 | 0.00 | 0.00 | 0.00 | 59 | |
| 20260507140002 | 13 | 204 | 11.3 | 16.1 | 0.00 | 0.00 | 0.00 | 60 | |
| 20260507135902 | 13 | 203 | 9.7 | 14.5 | 0.00 | 0.00 | 0.00 | 59 | |
| 20260507135802 | 13 | 203 | 11.3 | 14.5 | 0.00 | 0.00 | 0.00 | 59 | |
| 20260507135702 | 13 | 203 | 11.3 | 14.5 | 0.00 | 0.00 | 0.00 | 58 | |
| 20260507135603 | 13 | 202 | 11.3 | 14.5 | 0.00 | 0.00 | 0.00 | 59 | |
| 20260507135502 | 13 | 202 | 11.3 | 14.5 | 0.00 | 0.00 | 0.00 | 59 | |
| 20260507135402 | 13 | 202 | 11.3 | 14.5 | 0.00 | 0.00 | 0.00 | 59 | |
| 20260507135305 | 13 | 200 | 9.7 | 14.5 | 0.00 | 0.00 | 0.00 | 59 | |
| 20260507135202 | 13 | 198 | 11.3 | 16.1 | 0.00 | 0.00 | 0.00 | 59 | |
| 20260507135102 | 13 | 197 | 11.3 | 16.1 | 0.00 | 0.00 | 0.00 | 58 | |
| 20260507135002 | 13 | 197 | 11.3 | 16.1 | 0.00 | 0.00 | 0.00 | 57 | |
| 20260507134902 | 13 | 198 | 11.3 | 16.1 | 0.00 | 0.00 | 0.00 | 59 | |
| 20260507134803 | 13 | 197 | 11.3 | 16.1 | 0.00 | 0.00 | 0.00 | 58 | |
| 20260507134702 | 13 | 195 | 11.3 | 16.1 | 0.00 | 0.00 | 0.00 | 58 | |
| 20260507134602 | 13 | 194 | 11.3 | 16.1 | 0.00 | 0.00 | 0.00 | 58 | |
| 20260507134523 | 13 | 191 | 11.3 | 16.1 | 0.00 | 0.00 | 0.00 | 55 | |
| 20260507134402 | 13 | 187 | 11.3 | 16.1 | 0.00 | 0.00 | 0.00 | 57 | |
| 20260507134302 | 13 | 186 | 11.3 | 16.1 | 0.00 | 0.00 | 0.00 | 56 | |
| 20260507134202 | 13 | 188 | 11.3 | 16.1 | 0.00 | 0.00 | 0.00 | 58 | |
| 20260507134102 | 13 | 184 | 11.3 | 16.1 | 0.00 | 0.00 | 0.00 | 57 | |
| 20260507134002 | 14 | 178 | 9.7 | 16.1 | 0.00 | 0.00 | 0.00 | 56 | |
| 20260507133902 | 14 | 174 | 8.0 | 16.1 | 0.00 | 0.00 | 0.00 | 55 | |
| 20260507133823 | 14 | 171 | 8.0 | 16.1 | 0.00 | 0.00 | 0.00 | 55 | |
| 20260507133702 | 14 | 165 | 8.0 | 16.1 | 0.00 | 0.00 | 0.00 | 55 | |
| 20260507133602 | 14 | 161 | 8.0 | 16.1 | 0.00 | 0.00 | 0.00 | 56 | |
| 20260507133523 | 14 | 161 | 6.4 | 16.1 | 0.00 | 0.00 | 0.00 | 56 | |
| 20260507133402 | 14 | 156 | 6.4 | 16.1 | 0.00 | 0.00 | 0.00 | 57 | |
| 20260507133302 | 14 | 152 | 6.4 | 16.1 | 0.00 | 0.00 | 0.00 | 59 | |
| 20260507133202 | 14 | 145 | 4.8 | 12.9 | 0.00 | 0.00 | 0.00 | 56 | |
| 20260507133102 | 14 | 154 | 6.4 | 11.3 | 0.00 | 0.00 | 0.00 | 54 | |
| 20260507133002 | 14 | 167 | 6.4 | 12.9 | 0.00 | 0.00 | 0.00 | 55 | |
| 20260507132902 | 14 | 170 | 6.4 | 12.9 | 0.00 | 0.00 | 0.00 | 55 | |
| 20260507132823 | 13 | 173 | 6.4 | 12.9 | 0.00 | 0.00 | 0.00 | 56 | |
| 20260507132702 | 13 | 183 | 8.0 | 12.9 | 0.00 | 0.00 | 0.00 | 57 | |
| 20260507132602 | 13 | 188 | 8.0 | 16.1 | 0.00 | 0.00 | 0.00 | 58 | |
| 20260507132502 | 13 | 191 | 8.0 | 16.1 | 0.00 | 0.00 | 0.00 | 57 | |
| 20260507132402 | 13 | 196 | 8.0 | 16.1 | 0.00 | 0.00 | 0.00 | 57 | |
| 20260507132306 | 13 | 199 | 9.7 | 16.1 | 0.00 | 0.00 | 0.00 | 58 | |
| 20260507132202 | 13 | 198 | 9.7 | 16.1 | 0.00 | 0.00 | 0.00 | 57 | |
| 20260507132123 | 13 | 196 | 9.7 | 16.1 | 0.00 | 0.00 | 0.00 | 57 | |
| 20260507132002 | 13 | 197 | 9.7 | 16.1 | 0.00 | 0.00 | 0.00 | 58 | |
| 20260507131902 | 13 | 198 | 9.7 | 16.1 | 0.00 | 0.00 | 0.00 | 57 | |
| 20260507131802 | 13 | 198 | 9.7 | 16.1 | 0.00 | 0.00 | 0.00 | 57 | |
| 20260507131723 | 13 | 197 | 9.7 | 16.1 | 0.00 | 0.00 | 0.00 | 56 | |
| 20260507131602 | 13 | 198 | 9.7 | 14.5 | 0.00 | 0.00 | 0.00 | 57 | |
| 20260507131503 | 13 | 199 | 9.7 | 14.5 | 0.00 | 0.00 | 0.00 | 55 | |
| 20260507131402 | 13 | 199 | 9.7 | 14.5 | 0.00 | 0.00 | 0.00 | 54 | |
| 20260507131302 | 13 | 198 | 9.7 | 14.5 | 0.00 | 0.00 | 0.00 | 56 | |
| 20260507131202 | 13 | 195 | 9.7 | 14.5 | 0.00 | 0.00 | 0.00 | 58 | |
| 20260507131102 | 13 | 192 | 9.7 | 14.5 | 0.00 | 0.00 | 0.00 | 56 | |
| 20260507131002 | 13 | 184 | 9.7 | 14.5 | 0.00 | 0.00 | 0.00 | 56 | |
| 20260507130902 | 13 | 182 | 9.7 | 14.5 | 0.00 | 0.00 | 0.00 | 58 | |
| 20260507130802 | 13 | 180 | 9.7 | 14.5 | 0.00 | 0.00 | 0.00 | 57 | |
| 20260507130702 | 13 | 178 | 8.0 | 14.5 | 0.00 | 0.00 | 0.00 | 57 | |
| 20260507130602 | 13 | 173 | 8.0 | 14.5 | 0.00 | 0.00 | 0.00 | 55 | |
| 20260507130523 | 13 | 170 | 6.4 | 14.5 | 0.00 | 0.00 | 0.00 | 56 | |
| 20260507130402 | 13 | 163 | 6.4 | 12.9 | 0.00 | 0.00 | 0.00 | 57 | |
| 20260507130302 | 13 | 159 | 6.4 | 12.9 | 0.00 | 0.00 | 0.00 | 56 | |
| 20260507130202 | 13 | 162 | 6.4 | 12.9 | 0.00 | 0.00 | 0.00 | 57 | |
| 20260507130002 | 13 | 170 | 6.4 | 12.9 | 0.00 | 0.00 | 0.00 | 56 | |
| 20260507125902 | 13 | 167 | 6.4 | 12.9 | 0.00 | 0.00 | 0.00 | 56 | |
| 20260507125802 | 13 | 168 | 6.4 | 12.9 | 0.00 | 0.00 | 0.00 | 57 | |
| 20260507125703 | 13 | 167 | 8.0 | 14.5 | 0.00 | 0.00 | 0.00 | 55 | |
| 20260507125602 | 13 | 167 | 8.0 | 16.1 | 0.00 | 0.00 | 0.00 | 57 | |
| 20260507125525 | 13 | 167 | 8.0 | 16.1 | 0.00 | 0.00 | 0.00 | 56 | |
| 20260507125402 | 13 | 164 | 9.7 | 16.1 | 0.00 | 0.00 | 0.00 | 56 | |
| 20260507125306 | 13 | 165 | 9.7 | 17.7 | 0.00 | 0.00 | 0.00 | 57 | |
| 20260507125223 | 13 | 164 | 9.7 | 17.7 | 0.00 | 0.00 | 0.00 | 57 | |
| 20260507125102 | 13 | 163 | 9.7 | 17.7 | 0.00 | 0.00 | 0.00 | 57 | |
| 20260507125002 | 13 | 162 | 11.3 | 17.7 | 0.00 | 0.00 | 0.00 | 57 | |
| 20260507124923 | 13 | 163 | 11.3 | 17.7 | 0.00 | 0.00 | 0.00 | 55 | |
| 20260507124823 | 13 | 164 | 11.3 | 17.7 | 0.00 | 0.00 | 0.00 | 55 | |
| 20260507124702 | 13 | 162 | 11.3 | 17.7 | 0.00 | 0.00 | 0.00 | 55 | |
| 20260507124602 | 13 | 161 | 11.3 | 17.7 | 0.00 | 0.00 | 0.00 | 56 | |
| 20260507124502 | 13 | 161 | 9.7 | 17.7 | 0.00 | 0.00 | 0.00 | 55 | |
| 20260507124402 | 13 | 164 | 9.7 | 17.7 | 0.00 | 0.00 | 0.00 | 55 | |
| 20260507124302 | 13 | 164 | 9.7 | 17.7 | 0.00 | 0.00 | 0.00 | 54 | |
| 20260507124202 | 13 | 167 | 9.7 | 17.7 | 0.00 | 0.00 | 0.00 | 55 | |
| 20260507124102 | 14 | 168 | 9.7 | 17.7 | 0.00 | 0.00 | 0.00 | 54 | |
| 20260507124023 | 14 | 168 | 9.7 | 17.7 | 0.00 | 0.00 | 0.00 | 54 | |
| 20260507123902 | 14 | 169 | 8.0 | 17.7 | 0.00 | 0.00 | 0.00 | 56 | |
| 20260507123802 | 14 | 170 | 8.0 | 16.1 | 0.00 | 0.00 | 0.00 | 56 | |
| 20260507123702 | 14 | 174 | 8.0 | 16.1 | 0.00 | 0.00 | 0.00 | 55 | |
| 20260507123602 | 14 | 175 | 9.7 | 16.1 | 0.00 | 0.00 | 0.00 | 56 | |
| 20260507123502 | 13 | 177 | 9.7 | 16.1 | 0.00 | 0.00 | 0.00 | 59 | |
| 20260507123402 | 13 | 179 | 9.7 | 16.1 | 0.00 | 0.00 | 0.00 | 58 | |
| 20260507123302 | 13 | 178 | 9.7 | 16.1 | 0.00 | 0.00 | 0.00 | 58 | |
| 20260507123202 | 13 | 179 | 8.0 | 16.1 | 0.00 | 0.00 | 0.00 | 58 | |
| 20260507123102 | 13 | 181 | 8.0 | 16.1 | 0.00 | 0.00 | 0.00 | 58 | |
| 20260507123002 | 13 | 184 | 9.7 | 16.1 | 0.00 | 0.00 | 0.00 | 56 | |
| 20260507122902 | 13 | 185 | 9.7 | 16.1 | 0.00 | 0.00 | 0.00 | 58 | |
| 20260507122802 | 13 | 186 | 8.0 | 16.1 | 0.00 | 0.00 | 0.00 | 56 | |
| 20260507122702 | 13 | 186 | 8.0 | 16.1 | 0.00 | 0.00 | 0.00 | 56 | |
| 20260507122623 | 13 | 187 | 8.0 | 16.1 | 0.00 | 0.00 | 0.00 | 58 | |
| 20260507122502 | 13 | 187 | 6.4 | 16.1 | 0.00 | 0.00 | 0.00 | 58 | |
| 20260507122402 | 13 | 185 | 6.4 | 11.3 | 0.00 | 0.00 | 0.00 | 57 | |
| 20260507122306 | 13 | 186 | 6.4 | 11.3 | 0.00 | 0.00 | 0.00 | 57 | |
| 20260507122202 | 13 | 187 | 6.4 | 11.3 | 0.00 | 0.00 | 0.00 | 59 | |
| 20260507122102 | 13 | 185 | 6.4 | 12.9 | 0.00 | 0.00 | 0.00 | 59 | |
| 20260507122004 | 13 | 179 | 6.4 | 14.5 | 0.00 | 0.00 | 0.00 | 61 | |
| 20260507121902 | 13 | 177 | 6.4 | 14.5 | 0.00 | 0.00 | 0.00 | 60 | |
| 20260507121802 | 13 | 179 | 8.0 | 14.5 | 0.00 | 0.00 | 0.00 | 59 | |
| 20260507121702 | 13 | 185 | 8.0 | 14.5 | 0.00 | 0.00 | 0.00 | 59 | |
| 20260507121602 | 13 | 192 | 9.7 | 14.5 | 0.00 | 0.00 | 0.00 | 60 | |
| 20260507121502 | 13 | 196 | 9.7 | 14.5 | 0.00 | 0.00 | 0.00 | 58 | |
| 20260507121423 | 13 | 199 | 11.3 | 16.1 | 0.00 | 0.00 | 0.00 | 60 | |
| 20260507121302 | 13 | 202 | 11.3 | 16.1 | 0.00 | 0.00 | 0.00 | 61 | |
| 20260507121202 | 13 | 204 | 11.3 | 16.1 | 0.00 | 0.00 | 0.00 | 61 | |
| 20260507121102 | 13 | 207 | 11.3 | 16.1 | 0.00 | 0.00 | 0.00 | 60 | |
| 20260507121002 | 13 | 210 | 11.3 | 16.1 | 0.00 | 0.00 | 0.00 | 62 | |
| 20260507120902 | 13 | 208 | 11.3 | 16.1 | 0.00 | 0.00 | 0.00 | 64 | |
| 20260507120802 | 13 | 207 | 11.3 | 16.1 | 0.00 | 0.00 | 0.00 | 63 | |
| 20260507120703 | 13 | 202 | 11.3 | 16.1 | 0.00 | 0.00 | 0.00 | 60 | |
| 20260507120602 | 13 | 196 | 11.3 | 16.1 | 0.00 | 0.00 | 0.00 | 58 | |
| 20260507120502 | 13 | 189 | 9.7 | 16.1 | 0.00 | 0.00 | 0.00 | 63 | |
| 20260507120423 | 13 | 184 | 9.7 | 17.7 | 0.00 | 0.00 | 0.00 | 63 | |
| 20260507120302 | 13 | 179 | 9.7 | 17.7 | 0.00 | 0.00 | 0.00 | 61 | |
| 20260507120202 | 13 | 173 | 9.7 | 17.7 | 0.00 | 0.00 | 0.00 | 59 | |
| 20260507120002 | 13 | 169 | 9.7 | 17.7 | 0.00 | 0.00 | 0.00 | 58 | |
| 20260507115902 | 13 | 170 | 9.7 | 17.7 | 0.00 | 0.00 | 0.00 | 59 | |
| 20260507115802 | 13 | 172 | 9.7 | 17.7 | 0.00 | 0.00 | 0.00 | 59 | |
| 20260507115702 | 13 | 172 | 9.7 | 17.7 | 0.00 | 0.00 | 0.00 | 59 | |
| 20260507115602 | 13 | 173 | 9.7 | 17.7 | 0.00 | 0.00 | 0.00 | 60 | |
| 20260507115502 | 13 | 175 | 8.0 | 17.7 | 0.00 | 0.00 | 0.00 | 60 | |
| 20260507115402 | 13 | 177 | 8.0 | 16.1 | 0.00 | 0.00 | 0.00 | 62 | |
| 20260507115306 | 13 | 179 | 9.7 | 16.1 | 0.00 | 0.00 | 0.00 | 61 | |
| 20260507115202 | 13 | 180 | 9.7 | 16.1 | 0.00 | 0.00 | 0.00 | 60 | |
| 20260507115123 | 13 | 181 | 9.7 | 17.7 | 0.00 | 0.00 | 0.00 | 59 | |
| 20260507115023 | 13 | 183 | 9.7 | 17.7 | 0.00 | 0.00 | 0.00 | 59 | |
| 20260507114923 | 13 | 181 | 9.7 | 17.7 | 0.00 | 0.00 | 0.00 | 61 | |
| 20260507114802 | 13 | 183 | 9.7 | 17.7 | 0.00 | 0.00 | 0.00 | 60 | |
| 20260507114702 | 13 | 182 | 9.7 | 17.7 | 0.00 | 0.00 | 0.00 | 61 | |
| 20260507114602 | 13 | 182 | 11.3 | 17.7 | 0.00 | 0.00 | 0.00 | 61 | |
| 20260507114502 | 13 | 180 | 11.3 | 17.7 | 0.00 | 0.00 | 0.00 | 60 | |
| 20260507114402 | 13 | 180 | 9.7 | 17.7 | 0.00 | 0.00 | 0.00 | 61 | |
| 20260507114302 | 13 | 177 | 9.7 | 17.7 | 0.00 | 0.00 | 0.00 | 60 | |
| 20260507114202 | 13 | 175 | 9.7 | 17.7 | 0.00 | 0.00 | 0.00 | 62 | |
| 20260507114102 | 13 | 172 | 9.7 | 16.1 | 0.00 | 0.00 | 0.00 | 61 | |
| 20260507114002 | 13 | 170 | 9.7 | 16.1 | 0.00 | 0.00 | 0.00 | 60 | |
| 20260507113902 | 13 | 170 | 9.7 | 16.1 | 0.00 | 0.00 | 0.00 | 60 | |
| 20260507113802 | 13 | 167 | 9.7 | 16.1 | 0.00 | 0.00 | 0.00 | 59 | |
| 20260507113702 | 13 | 170 | 9.7 | 16.1 | 0.00 | 0.00 | 0.00 | 60 | |
| 20260507113602 | 13 | 170 | 9.7 | 16.1 | 0.00 | 0.00 | 0.00 | 59 | |
| 20260507113503 | 13 | 169 | 9.7 | 16.1 | 0.00 | 0.00 | 0.00 | 60 | |
| 20260507113402 | 13 | 171 | 9.7 | 16.1 | 0.00 | 0.00 | 0.00 | 60 | |
| 20260507113302 | 13 | 173 | 9.7 | 16.1 | 0.00 | 0.00 | 0.00 | 60 | |
| 20260507113202 | 13 | 177 | 9.7 | 16.1 | 0.00 | 0.00 | 0.00 | 61 | |
| 20260507113102 | 13 | 181 | 11.3 | 17.7 | 0.00 | 0.00 | 0.00 | 61 | |
| 20260507113002 | 12 | 182 | 11.3 | 19.3 | 0.00 | 0.00 | 0.00 | 59 | |
| 20260507112902 | 12 | 184 | 11.3 | 19.3 | 0.00 | 0.00 | 0.00 | 60 | |
| 20260507112802 | 13 | 186 | 11.3 | 19.3 | 0.00 | 0.00 | 0.00 | 61 | |
| 20260507112723 | 12 | 185 | 12.9 | 19.3 | 0.00 | 0.00 | 0.00 | 60 | |
| 20260507112603 | 12 | 183 | 12.9 | 19.3 | 0.00 | 0.00 | 0.00 | 60 | |
| 20260507112502 | 12 | 182 | 12.9 | 19.3 | 0.00 | 0.00 | 0.00 | 61 | |
| 20260507112402 | 12 | 180 | 12.9 | 19.3 | 0.00 | 0.00 | 0.00 | 62 | |
| 20260507112306 | 12 | 179 | 12.9 | 19.3 | 0.00 | 0.00 | 0.00 | 61 | |
| 20260507112202 | 12 | 177 | 12.9 | 19.3 | 0.00 | 0.00 | 0.00 | 61 | |
| 20260507112102 | 12 | 174 | 12.9 | 19.3 | 0.00 | 0.00 | 0.00 | 60 | |
| 20260507112023 | 12 | 173 | 12.9 | 19.3 | 0.00 | 0.00 | 0.00 | 60 | |
| 20260507111902 | 12 | 176 | 12.9 | 19.3 | 0.00 | 0.00 | 0.00 | 60 | |
| 20260507111802 | 12 | 177 | 12.9 | 19.3 | 0.00 | 0.00 | 0.00 | 60 | |
| 20260507111723 | 12 | 178 | 11.3 | 19.3 | 0.00 | 0.00 | 0.00 | 60 | |
| 20260507111602 | 12 | 181 | 11.3 | 19.3 | 0.00 | 0.00 | 0.00 | 61 | |
| 20260507111503 | 12 | 186 | 11.3 | 19.3 | 0.00 | 0.00 | 0.00 | 61 | |
| 20260507111402 | 12 | 189 | 11.3 | 19.3 | 0.00 | 0.00 | 0.00 | 61 | |
| 20260507111302 | 12 | 189 | 11.3 | 19.3 | 0.00 | 0.00 | 0.00 | 62 | |
| 20260507111202 | 12 | 190 | 12.9 | 19.3 | 0.00 | 0.00 | 0.00 | 63 | |
| 20260507111102 | 13 | 192 | 12.9 | 19.3 | 0.00 | 0.00 | 0.00 | 63 | |
| 20260507111002 | 13 | 192 | 12.9 | 19.3 | 0.00 | 0.00 | 0.00 | 62 | |
| 20260507110923 | 13 | 192 | 11.3 | 19.3 | 0.00 | 0.00 | 0.00 | 62 | |
| 20260507110802 | 13 | 192 | 11.3 | 17.7 | 0.00 | 0.00 | 0.00 | 62 | |
| 20260507110723 | 13 | 194 | 11.3 | 17.7 | 0.00 | 0.00 | 0.00 | 63 | |
| 20260507110623 | 13 | 195 | 11.3 | 17.7 | 0.00 | 0.00 | 0.00 | 63 | |
| 20260507110502 | 13 | 192 | 11.3 | 17.7 | 0.00 | 0.00 | 0.00 | 63 | |
| 20260507110402 | 12 | 190 | 11.3 | 17.7 | 0.00 | 0.00 | 0.00 | 63 | |
| 20260507110302 | 12 | 190 | 11.3 | 16.1 | 0.00 | 0.00 | 0.00 | 62 | |
| 20260507110202 | 12 | 191 | 9.7 | 16.1 | 0.00 | 0.00 | 0.00 | 64 | |
| 20260507110002 | 12 | 187 | 11.3 | 19.3 | 0.00 | 0.00 | 0.00 | 64 | |
| 20260507105923 | 12 | 184 | 11.3 | 19.3 | 0.00 | 0.00 | 0.00 | 65 | |
| 20260507105802 | 12 | 181 | 11.3 | 19.3 | 0.00 | 0.00 | 0.00 | 65 | |
| 20260507105702 | 12 | 177 | 9.7 | 19.3 | 0.00 | 0.00 | 0.00 | 64 | |
| 20260507105602 | 12 | 174 | 9.7 | 19.3 | 0.00 | 0.00 | 0.00 | 64 | |
| 20260507105502 | 12 | 173 | 9.7 | 19.3 | 0.00 | 0.00 | 0.00 | 64 | |
| 20260507105402 | 12 | 175 | 8.0 | 19.3 | 0.00 | 0.00 | 0.00 | 64 | |
| 20260507105306 | 12 | 178 | 8.0 | 19.3 | 0.00 | 0.00 | 0.00 | 64 | |
| 20260507105202 | 12 | 179 | 8.0 | 19.3 | 0.00 | 0.00 | 0.00 | 64 | |
| 20260507105103 | 12 | 181 | 8.0 | 19.3 | 0.00 | 0.00 | 0.00 | 64 | |
| 20260507105003 | 12 | 186 | 8.0 | 19.3 | 0.00 | 0.00 | 0.00 | 65 | |
| 20260507104902 | 12 | 189 | 8.0 | 17.7 | 0.00 | 0.00 | 0.00 | 65 | |
| 20260507104802 | 12 | 191 | 8.0 | 14.5 | 0.00 | 0.00 | 0.00 | 65 | |
| 20260507104702 | 12 | 191 | 9.7 | 16.1 | 0.00 | 0.00 | 0.00 | 66 | |
| 20260507104602 | 12 | 195 | 9.7 | 19.3 | 0.00 | 0.00 | 0.00 | 66 | |
| 20260507104523 | 12 | 198 | 9.7 | 19.3 | 0.00 | 0.00 | 0.00 | 66 | |
| 20260507104402 | 12 | 198 | 9.7 | 19.3 | 0.00 | 0.00 | 0.00 | 67 | |
| 20260507104302 | 12 | 200 | 11.3 | 19.3 | 0.00 | 0.00 | 0.00 | 67 | |
| 20260507104202 | 12 | 200 | 11.3 | 19.3 | 0.00 | 0.00 | 0.00 | 67 | |
| 20260507104104 | 12 | 201 | 11.3 | 19.3 | 0.00 | 0.00 | 0.00 | 67 | |
| 20260507104003 | 12 | 201 | 11.3 | 19.3 | 0.00 | 0.00 | 0.00 | 66 | |
| 20260507103923 | 12 | 202 | 11.3 | 19.3 | 0.00 | 0.00 | 0.00 | 68 | |
| 20260507103802 | 12 | 203 | 11.3 | 19.3 | 0.00 | 0.00 | 0.00 | 67 | |
| 20260507103702 | 12 | 206 | 11.3 | 19.3 | 0.00 | 0.00 | 0.00 | 68 | |
| 20260507103602 | 12 | 205 | 0.0 | 16.1 | 0.00 | 0.00 | 0.00 | 68 | |
| 20260507103502 | 12 | 204 | 0.0 | 16.1 | 0.00 | 0.00 | 0.00 | 67 | |
| 20260507103402 | 12 | 206 | 0.0 | 16.1 | 0.00 | 0.00 | 0.00 | 67 | |
| 20260507103302 | 12 | 204 | 0.0 | 16.1 | 0.00 | 0.00 | 0.00 | 67 | |
| 20260507103202 | 12 | 205 | 0.0 | 16.1 | 0.00 | 0.00 | 0.00 | 67 | |
| 20260507103102 | 12 | 202 | 0.0 | 16.1 | 0.00 | 0.00 | 0.00 | 66 | |
| 20260507103002 | 12 | 200 | 0.0 | 16.1 | 0.00 | 0.00 | 0.00 | 67 | |
| 20260507102902 | 5 | 0 | 0.0 | 0.0 | 0.00 | 0.00 | 0.00 | 84 | |
| 20260507102802 | 5 | 0 | 0.0 | 0.0 | 0.00 | 0.00 | 0.00 | 84 | |
| 20260507102704 | 5 | 0 | 0.0 | 0.0 | 0.00 | 0.00 | 0.00 | 84 | |
| 20260507102623 | 5 | 0 | 0.0 | 0.0 | 0.00 | 0.00 | 0.00 | 84 | |
| 20260507102502 | 5 | 0 | 0.0 | 0.0 | 0.00 | 0.00 | 0.00 | 84 | |
| 20260507102402 | 5 | 0 | 0.0 | 0.0 | 0.00 | 0.00 | 0.00 | 84 | |
| 20260507102306 | 5 | 0 | 0.0 | 0.0 | 0.00 | 0.00 | 0.00 | 84 | |
| 20260507102223 | 5 | 0 | 0.0 | 0.0 | 0.00 | 0.00 | 0.00 | 84 | |
| 20260507102102 | 5 | 0 | 0.0 | 0.0 | 0.00 | 0.00 | 0.00 | 84 | |
| 20260507102023 | 5 | 0 | 0.0 | 0.0 | 0.00 | 0.00 | 0.00 | 84 | |
| 20260507101902 | 5 | 0 | 0.0 | 0.0 | 0.00 | 0.00 | 0.00 | 84 | |
| 20260507101802 | 5 | 0 | 0.0 | 0.0 | 0.00 | 0.00 | 0.00 | 84 | |
| 20260507101702 | 5 | 0 | 0.0 | 0.0 | 0.00 | 0.00 | 0.00 | 84 | |
| 20260507101602 | 5 | 0 | 0.0 | 0.0 | 0.00 | 0.00 | 0.00 | 84 | |
| 20260507101502 | 5 | 0 | 0.0 | 0.0 | 0.00 | 0.00 | 0.00 | 84 | |
| 20260507101402 | 5 | 0 | 0.0 | 0.0 | 0.00 | 0.00 | 0.00 | 84 | |
| 20260507101302 | 5 | 0 | 0.0 | 0.0 | 0.00 | 0.00 | 0.00 | 84 | |
| 20260507101223 | 5 | 0 | 0.0 | 0.0 | 0.00 | 0.00 | 0.00 | 84 | |
| 20260507101102 | 5 | 0 | 0.0 | 0.0 | 0.00 | 0.00 | 0.00 | 84 | |
| 20260507101002 | 5 | 0 | 0.0 | 0.0 | 0.00 | 0.00 | 0.00 | 84 | |
| 20260507100923 | 5 | 0 | 0.0 | 0.0 | 0.00 | 0.00 | 0.00 | 84 | |
| 20260507100802 | 5 | 0 | 0.0 | 0.0 | 0.00 | 0.00 | 0.00 | 84 | |
| 20260507100702 | 5 | 0 | 0.0 | 0.0 | 0.00 | 0.00 | 0.00 | 84 | |
| 20260507100602 | 5 | 0 | 0.0 | 0.0 | 0.00 | 0.00 | 0.00 | 84 | |
| 20260507100502 | 5 | 0 | 0.0 | 0.0 | 0.00 | 0.00 | 0.00 | 84 | |
| 20260507100423 | 5 | 0 | 0.0 | 0.0 | 0.00 | 0.00 | 0.00 | 84 | |
| 20260507100302 | 5 | 0 | 0.0 | 0.0 | 0.00 | 0.00 | 0.00 | 84 | |
| 20260507100224 | 5 | 0 | 0.0 | 0.0 | 0.00 | 0.00 | 0.00 | 84 | |
| 20260507100104 | 5 | 0 | 0.0 | 0.0 | 0.00 | 0.00 | 0.00 | 84 | |
| 20260507100002 | 5 | 0 | 0.0 | 0.0 | 0.00 | 0.00 | 0.00 | 84 | |
| 20260507095902 | 5 | 0 | 0.0 | 0.0 | 0.00 | 0.00 | 0.00 | 84 | |
| 20260507095802 | 5 | 0 | 0.0 | 0.0 | 0.00 | 0.00 | 0.00 | 84 | |
| 20260507095702 | 5 | 0 | 0.0 | 0.0 | 0.00 | 0.00 | 0.00 | 84 | |
| 20260507095602 | 5 | 0 | 0.0 | 0.0 | 0.00 | 0.00 | 0.00 | 84 | |
| 20260507095502 | 5 | 0 | 0.0 | 0.0 | 0.00 | 0.00 | 0.00 | 84 | |
| 20260507095402 | 5 | 0 | 0.0 | 0.0 | 0.00 | 0.00 | 0.00 | 84 | |
| 20260507095323 | 5 | 0 | 0.0 | 0.0 | 0.00 | 0.00 | 0.00 | 84 | |
| 20260507095202 | 5 | 0 | 0.0 | 0.0 | 0.00 | 0.00 | 0.00 | 84 | |
| 20260507095102 | 5 | 0 | 0.0 | 0.0 | 0.00 | 0.00 | 0.00 | 84 | |
| 20260507095002 | 5 | 0 | 0.0 | 0.0 | 0.00 | 0.00 | 0.00 | 84 | |
| 20260507094902 | 5 | 0 | 0.0 | 0.0 | 0.00 | 0.00 | 0.00 | 84 | |
| 20260507094802 | 5 | 0 | 0.0 | 0.0 | 0.00 | 0.00 | 0.00 | 84 | |
| 20260507094702 | 5 | 0 | 0.0 | 0.0 | 0.00 | 0.00 | 0.00 | 84 | |
| 20260507094602 | 5 | 0 | 0.0 | 0.0 | 0.00 | 0.00 | 0.00 | 84 | |
| 20260507094502 | 5 | 0 | 0.0 | 0.0 | 0.00 | 0.00 | 0.00 | 84 | |
| 20260507094423 | 5 | 0 | 0.0 | 0.0 | 0.00 | 0.00 | 0.00 | 84 | |
| 20260507094302 | 5 | 0 | 0.0 | 0.0 | 0.00 | 0.00 | 0.00 | 84 | |
| 20260507094202 | 5 | 0 | 0.0 | 0.0 | 0.00 | 0.00 | 0.00 | 84 | |
| 20260507094102 | 5 | 0 | 0.0 | 0.0 | 0.00 | 0.00 | 0.00 | 84 | |
| 20260507094002 | 5 | 0 | 0.0 | 0.0 | 0.00 | 0.00 | 0.00 | 84 | |
| 20260507093902 | 5 | 0 | 0.0 | 0.0 | 0.00 | 0.00 | 0.00 | 84 | |
| 20260507093802 | 5 | 0 | 0.0 | 0.0 | 0.00 | 0.00 | 0.00 | 84 | |
| 20260507093702 | 5 | 0 | 0.0 | 0.0 | 0.00 | 0.00 | 0.00 | 84 | |
| 20260507093602 | 5 | 0 | 0.0 | 0.0 | 0.00 | 0.00 | 0.00 | 84 | |
| 20260507093502 | 5 | 0 | 0.0 | 0.0 | 0.00 | 0.00 | 0.00 | 84 | |
| 20260507093402 | 5 | 0 | 0.0 | 0.0 | 0.00 | 0.00 | 0.00 | 84 | |
| 20260507093302 | 5 | 0 | 0.0 | 0.0 | 0.00 | 0.00 | 0.00 | 84 | |
| 20260507093202 | 5 | 0 | 0.0 | 0.0 | 0.00 | 0.00 | 0.00 | 84 | |
| 20260507093102 | 5 | 0 | 0.0 | 0.0 | 0.00 | 0.00 | 0.00 | 84 | |
| 20260507093002 | 5 | 0 | 0.0 | 0.0 | 0.00 | 0.00 | 0.00 | 84 | |
| 20260507092902 | 5 | 0 | 0.0 | 0.0 | 0.00 | 0.00 | 0.00 | 84 | |
| 20260507092803 | 5 | 0 | 0.0 | 0.0 | 0.00 | 0.00 | 0.00 | 84 | |
| 20260507092702 | 5 | 0 | 0.0 | 0.0 | 0.00 | 0.00 | 0.00 | 84 | |
| 20260507092602 | 5 | 0 | 0.0 | 0.0 | 0.00 | 0.00 | 0.00 | 84 | |
| 20260507092502 | 5 | 0 | 0.0 | 0.0 | 0.00 | 0.00 | 0.00 | 84 | |
| 20260507092423 | 5 | 0 | 0.0 | 0.0 | 0.00 | 0.00 | 0.00 | 84 | |
| 20260507092306 | 5 | 0 | 0.0 | 0.0 | 0.00 | 0.00 | 0.00 | 84 | |
| 20260507092224 | 5 | 0 | 0.0 | 0.0 | 0.00 | 0.00 | 0.00 | 84 | |
| 20260507092123 | 5 | 0 | 0.0 | 0.0 | 0.00 | 0.00 | 0.00 | 84 | |
| 20260507092002 | 5 | 0 | 0.0 | 0.0 | 0.00 | 0.00 | 0.00 | 84 | |
| 20260507091902 | 5 | 0 | 0.0 | 0.0 | 0.00 | 0.00 | 0.00 | 84 | |
| 20260507091802 | 5 | 0 | 0.0 | 0.0 | 0.00 | 0.00 | 0.00 | 84 | |
| 20260507091702 | 5 | 0 | 0.0 | 0.0 | 0.00 | 0.00 | 0.00 | 84 | |
| 20260507091602 | 5 | 0 | 0.0 | 0.0 | 0.00 | 0.00 | 0.00 | 84 | |
| 20260507091524 | 5 | 0 | 0.0 | 0.0 | 0.00 | 0.00 | 0.00 | 84 | |
| 20260507091402 | 5 | 0 | 0.0 | 0.0 | 0.00 | 0.00 | 0.00 | 84 | |
| 20260507091302 | 5 | 0 | 0.0 | 0.0 | 0.00 | 0.00 | 0.00 | 84 | |
| 20260507091202 | 5 | 0 | 0.0 | 0.0 | 0.00 | 0.00 | 0.00 | 84 | |
| 20260507091102 | 5 | 0 | 0.0 | 0.0 | 0.00 | 0.00 | 0.00 | 84 | |
| 20260507091002 | 5 | 0 | 0.0 | 0.0 | 0.00 | 0.00 | 0.00 | 84 | |
| 20260507090902 | 5 | 0 | 0.0 | 0.0 | 0.00 | 0.00 | 0.00 | 84 | |
| 20260507090803 | 5 | 0 | 0.0 | 0.0 | 0.00 | 0.00 | 0.00 | 84 | |
| 20260507090702 | 5 | 0 | 0.0 | 0.0 | 0.00 | 0.00 | 0.00 | 84 | |
| 20260507090602 | 5 | 0 | 0.0 | 0.0 | 0.00 | 0.00 | 0.00 | 84 | |
| 20260507090502 | 5 | 0 | 0.0 | 0.0 | 0.00 | 0.00 | 0.00 | 84 | |
| 20260507090402 | 5 | 0 | 0.0 | 0.0 | 0.00 | 0.00 | 0.00 | 84 | |
| 20260507090302 | 5 | 0 | 0.0 | 0.0 | 0.00 | 0.00 | 0.00 | 84 | |
| 20260507090224 | 5 | 0 | 0.0 | 0.0 | 0.00 | 0.00 | 0.00 | 84 | |
| 20260507090124 | 5 | 0 | 0.0 | 0.0 | 0.00 | 0.00 | 0.00 | 84 | |
| 20260507090002 | 5 | 0 | 0.0 | 0.0 | 0.00 | 0.00 | 0.00 | 84 | |
| 20260507085923 | 5 | 0 | 0.0 | 0.0 | 0.00 | 0.00 | 0.00 | 84 | |
| 20260507085802 | 5 | 0 | 0.0 | 0.0 | 0.00 | 0.00 | 0.00 | 84 | |
| 20260507085702 | 5 | 0 | 0.0 | 0.0 | 0.00 | 0.00 | 0.00 | 84 | |
| 20260507085602 | 5 | 0 | 0.0 | 0.0 | 0.00 | 0.00 | 0.00 | 84 | |
| 20260507085502 | 5 | 0 | 0.0 | 0.0 | 0.00 | 0.00 | 0.00 | 84 | |
| 20260507085402 | 5 | 0 | 0.0 | 0.0 | 0.00 | 0.00 | 0.00 | 84 | |
| 20260507085306 | 5 | 0 | 0.0 | 0.0 | 0.00 | 0.00 | 0.00 | 84 | |
| 20260507085223 | 5 | 0 | 0.0 | 0.0 | 0.00 | 0.00 | 0.00 | 84 | |
| 20260507085102 | 5 | 0 | 0.0 | 0.0 | 0.00 | 0.00 | 0.00 | 84 | |
| 20260507085002 | 5 | 0 | 0.0 | 0.0 | 0.00 | 0.00 | 0.00 | 84 | |
| 20260507084902 | 5 | 0 | 0.0 | 0.0 | 0.00 | 0.00 | 0.00 | 84 | |
| 20260507084823 | 5 | 0 | 0.0 | 0.0 | 0.00 | 0.00 | 0.00 | 84 | |
| 20260507084702 | 5 | 0 | 0.0 | 0.0 | 0.00 | 0.00 | 0.00 | 84 | |
| 20260507084603 | 5 | 0 | 0.0 | 0.0 | 0.00 | 0.00 | 0.00 | 84 | |
| 20260507084502 | 5 | 0 | 0.0 | 0.0 | 0.00 | 0.00 | 0.00 | 84 | |
| 20260507084402 | 5 | 0 | 0.0 | 0.0 | 0.00 | 0.00 | 0.00 | 84 | |
| 20260507084323 | 5 | 0 | 0.0 | 0.0 | 0.00 | 0.00 | 0.00 | 84 | |
| 20260507084202 | 5 | 0 | 0.0 | 0.0 | 0.00 | 0.00 | 0.00 | 84 | |
| 20260507084102 | 5 | 0 | 0.0 | 0.0 | 0.00 | 0.00 | 0.00 | 84 | |
| 20260507084002 | 5 | 0 | 0.0 | 0.0 | 0.00 | 0.00 | 0.00 | 84 | |
| 20260507083902 | 5 | 0 | 0.0 | 0.0 | 0.00 | 0.00 | 0.00 | 84 | |
| 20260507083802 | 5 | 0 | 0.0 | 0.0 | 0.00 | 0.00 | 0.00 | 84 | |
| 20260507083702 | 5 | 0 | 0.0 | 0.0 | 0.00 | 0.00 | 0.00 | 84 | |
| 20260507083623 | 5 | 0 | 0.0 | 0.0 | 0.00 | 0.00 | 0.00 | 84 | |
| 20260507083502 | 5 | 0 | 0.0 | 0.0 | 0.00 | 0.00 | 0.00 | 84 | |
| 20260507083402 | 5 | 0 | 0.0 | 0.0 | 0.00 | 0.00 | 0.00 | 84 | |
| 20260507083302 | 5 | 0 | 0.0 | 0.0 | 0.00 | 0.00 | 0.00 | 84 | |
| 20260507083202 | 5 | 0 | 0.0 | 0.0 | 0.00 | 0.00 | 0.00 | 84 | |
| 20260507083102 | 5 | 0 | 0.0 | 0.0 | 0.00 | 0.00 | 0.00 | 84 | |
| 20260507083002 | 5 | 0 | 0.0 | 0.0 | 0.00 | 0.00 | 0.00 | 84 | |
| 20260507082902 | 5 | 0 | 0.0 | 0.0 | 0.00 | 0.00 | 0.00 | 84 | |
| 20260507082802 | 5 | 0 | 0.0 | 0.0 | 0.00 | 0.00 | 0.00 | 84 | |
| 20260507082702 | 5 | 0 | 0.0 | 0.0 | 0.00 | 0.00 | 0.00 | 84 | |
| 20260507082602 | 5 | 0 | 0.0 | 0.0 | 0.00 | 0.00 | 0.00 | 84 | |
| 20260507082502 | 5 | 0 | 0.0 | 0.0 | 0.00 | 0.00 | 0.00 | 84 | |
| 20260507082403 | 5 | 0 | 0.0 | 0.0 | 0.00 | 0.00 | 0.00 | 84 | |
| 20260507082306 | 5 | 0 | 0.0 | 0.0 | 0.00 | 0.00 | 0.00 | 84 | |
| 20260507082202 | 5 | 0 | 0.0 | 0.0 | 0.00 | 0.00 | 0.00 | 84 | |
| 20260507082102 | 5 | 0 | 0.0 | 0.0 | 0.00 | 0.00 | 0.00 | 84 | |
| 20260507082023 | 5 | 0 | 0.0 | 0.0 | 0.00 | 0.00 | 0.00 | 84 | |
| 20260507081902 | 5 | 0 | 0.0 | 0.0 | 0.00 | 0.00 | 0.00 | 84 | |
| 20260507081802 | 5 | 0 | 0.0 | 0.0 | 0.00 | 0.00 | 0.00 | 84 | |
| 20260507081702 | 5 | 0 | 0.0 | 0.0 | 0.00 | 0.00 | 0.00 | 84 | |
| 20260507081602 | 5 | 0 | 0.0 | 0.0 | 0.00 | 0.00 | 0.00 | 84 | |
| 20260507081502 | 5 | 0 | 0.0 | 0.0 | 0.00 | 0.00 | 0.00 | 84 | |
| 20260507081423 | 5 | 0 | 0.0 | 0.0 | 0.00 | 0.00 | 0.00 | 84 | |
| 20260507081323 | 5 | 0 | 0.0 | 0.0 | 0.00 | 0.00 | 0.00 | 84 | |
| 20260507081223 | 5 | 0 | 0.0 | 0.0 | 0.00 | 0.00 | 0.00 | 84 | |
| 20260507081102 | 5 | 0 | 0.0 | 0.0 | 0.00 | 0.00 | 0.00 | 84 | |
| 20260507081023 | 5 | 0 | 0.0 | 0.0 | 0.00 | 0.00 | 0.00 | 84 | |
| 20260507080902 | 5 | 0 | 0.0 | 0.0 | 0.00 | 0.00 | 0.00 | 84 | |
| 20260507080802 | 5 | 0 | 0.0 | 0.0 | 0.00 | 0.00 | 0.00 | 84 | |
| 20260507080702 | 5 | 0 | 0.0 | 0.0 | 0.00 | 0.00 | 0.00 | 84 | |
| 20260507080602 | 5 | 0 | 0.0 | 0.0 | 0.00 | 0.00 | 0.00 | 84 | |
| 20260507080502 | 5 | 0 | 0.0 | 0.0 | 0.00 | 0.00 | 0.00 | 84 | |
| 20260507080402 | 5 | 0 | 0.0 | 0.0 | 0.00 | 0.00 | 0.00 | 84 | |
| 20260507080302 | 5 | 0 | 0.0 | 0.0 | 0.00 | 0.00 | 0.00 | 84 | |
| 20260507080223 | 5 | 0 | 0.0 | 0.0 | 0.00 | 0.00 | 0.00 | 84 | |
| 20260507080003 | 5 | 0 | 0.0 | 0.0 | 0.00 | 0.00 | 0.00 | 84 | |
| 20260507075902 | 5 | 0 | 0.0 | 0.0 | 0.00 | 0.00 | 0.00 | 84 | |
| 20260507075802 | 5 | 0 | 0.0 | 0.0 | 0.00 | 0.00 | 0.00 | 84 | |
| 20260507075702 | 5 | 0 | 0.0 | 0.0 | 0.00 | 0.00 | 0.00 | 84 | |
| 20260507075602 | 5 | 0 | 0.0 | 0.0 | 0.00 | 0.00 | 0.00 | 84 | |
| 20260507075523 | 5 | 0 | 0.0 | 0.0 | 0.00 | 0.00 | 0.00 | 84 | |
| 20260507075402 | 5 | 0 | 0.0 | 0.0 | 0.00 | 0.00 | 0.00 | 84 | |
| 20260507075306 | 5 | 0 | 0.0 | 0.0 | 0.00 | 0.00 | 0.00 | 84 | |
| 20260507075223 | 5 | 0 | 0.0 | 0.0 | 0.00 | 0.00 | 0.00 | 84 | |
| 20260507075102 | 5 | 0 | 0.0 | 0.0 | 0.00 | 0.00 | 0.00 | 84 | |
| 20260507075004 | 5 | 0 | 0.0 | 0.0 | 0.00 | 0.00 | 0.00 | 84 | |
| 20260507074902 | 5 | 0 | 0.0 | 0.0 | 0.00 | 0.00 | 0.00 | 84 | |
| 20260507074823 | 5 | 0 | 0.0 | 0.0 | 0.00 | 0.00 | 0.00 | 84 | |
| 20260507074702 | 5 | 0 | 0.0 | 0.0 | 0.00 | 0.00 | 0.00 | 84 | |
| 20260507074602 | 5 | 0 | 0.0 | 0.0 | 0.00 | 0.00 | 0.00 | 84 | |
| 20260507074523 | 5 | 0 | 0.0 | 0.0 | 0.00 | 0.00 | 0.00 | 84 | |
| 20260507074423 | 5 | 0 | 0.0 | 0.0 | 0.00 | 0.00 | 0.00 | 84 | |
| 20260507074302 | 5 | 0 | 0.0 | 0.0 | 0.00 | 0.00 | 0.00 | 84 | |
| 20260507074202 | 5 | 0 | 0.0 | 0.0 | 0.00 | 0.00 | 0.00 | 84 | |
| 20260507074102 | 5 | 0 | 0.0 | 0.0 | 0.00 | 0.00 | 0.00 | 84 | |
| 20260507074002 | 5 | 0 | 0.0 | 0.0 | 0.00 | 0.00 | 0.00 | 84 | |
| 20260507073902 | 5 | 0 | 0.0 | 0.0 | 0.00 | 0.00 | 0.00 | 84 | |
| 20260507073802 | 5 | 0 | 0.0 | 0.0 | 0.00 | 0.00 | 0.00 | 84 | |
| 20260507073724 | 5 | 0 | 0.0 | 0.0 | 0.00 | 0.00 | 0.00 | 84 | |
| 20260507073602 | 5 | 0 | 0.0 | 0.0 | 0.00 | 0.00 | 0.00 | 84 | |
| 20260507073502 | 5 | 0 | 0.0 | 0.0 | 0.00 | 0.00 | 0.00 | 84 | |
| 20260507073402 | 5 | 0 | 0.0 | 0.0 | 0.00 | 0.00 | 0.00 | 84 | |
| 20260507073302 | 5 | 0 | 0.0 | 0.0 | 0.00 | 0.00 | 0.00 | 84 | |
| 20260507073202 | 5 | 0 | 0.0 | 0.0 | 0.00 | 0.00 | 0.00 | 84 | |
| 20260507073123 | 5 | 0 | 0.0 | 0.0 | 0.00 | 0.00 | 0.00 | 84 | |
| 20260507073002 | 5 | 0 | 0.0 | 0.0 | 0.00 | 0.00 | 0.00 | 84 | |
| 20260507072902 | 5 | 0 | 0.0 | 0.0 | 0.00 | 0.00 | 0.00 | 84 | |
| 20260507072802 | 5 | 0 | 0.0 | 0.0 | 0.00 | 0.00 | 0.00 | 84 | |
| 20260507072702 | 5 | 0 | 0.0 | 0.0 | 0.00 | 0.00 | 0.00 | 84 | |
| 20260507072602 | 5 | 0 | 0.0 | 0.0 | 0.00 | 0.00 | 0.00 | 84 | |
| 20260507072502 | 5 | 0 | 0.0 | 0.0 | 0.00 | 0.00 | 0.00 | 84 | |
| 20260507072402 | 5 | 0 | 0.0 | 0.0 | 0.00 | 0.00 | 0.00 | 84 | |
| 20260507072306 | 5 | 0 | 0.0 | 0.0 | 0.00 | 0.00 | 0.00 | 84 | |
| 20260507072202 | 5 | 0 | 0.0 | 0.0 | 0.00 | 0.00 | 0.00 | 84 | |
| 20260507072102 | 5 | 0 | 0.0 | 0.0 | 0.00 | 0.00 | 0.00 | 84 | |
| 20260507072002 | 5 | 0 | 0.0 | 0.0 | 0.00 | 0.00 | 0.00 | 84 | |
| 20260507071923 | 5 | 0 | 0.0 | 0.0 | 0.00 | 0.00 | 0.00 | 84 | |
| 20260507071802 | 5 | 0 | 0.0 | 0.0 | 0.00 | 0.00 | 0.00 | 84 | |
| 20260507071723 | 5 | 0 | 0.0 | 0.0 | 0.00 | 0.00 | 0.00 | 84 | |
| 20260507071604 | 5 | 0 | 0.0 | 0.0 | 0.00 | 0.00 | 0.00 | 84 | |
| 20260507071503 | 5 | 0 | 0.0 | 0.0 | 0.00 | 0.00 | 0.00 | 84 | |
| 20260507071402 | 5 | 0 | 0.0 | 0.0 | 0.00 | 0.00 | 0.00 | 84 | |
| 20260507071302 | 5 | 0 | 0.0 | 0.0 | 0.00 | 0.00 | 0.00 | 84 | |
| 20260507071202 | 5 | 0 | 0.0 | 0.0 | 0.00 | 0.00 | 0.00 | 84 | |
| 20260507071102 | 5 | 0 | 0.0 | 0.0 | 0.00 | 0.00 | 0.00 | 84 | |
| 20260507071023 | 5 | 0 | 0.0 | 0.0 | 0.00 | 0.00 | 0.00 | 84 | |
| 20260507070902 | 5 | 0 | 0.0 | 0.0 | 0.00 | 0.00 | 0.00 | 84 | |
| 20260507070802 | 5 | 0 | 0.0 | 0.0 | 0.00 | 0.00 | 0.00 | 84 | |
| 20260507070702 | 5 | 0 | 0.0 | 0.0 | 0.00 | 0.00 | 0.00 | 84 | |
| 20260507070602 | 5 | 0 | 0.0 | 0.0 | 0.00 | 0.00 | 0.00 | 84 | |
| 20260507070503 | 5 | 0 | 0.0 | 0.0 | 0.00 | 0.00 | 0.00 | 84 | |
| 20260507070423 | 5 | 0 | 0.0 | 0.0 | 0.00 | 0.00 | 0.00 | 84 | |
| 20260507070323 | 5 | 0 | 0.0 | 0.0 | 0.00 | 0.00 | 0.00 | 84 | |
| 20260507070202 | 5 | 0 | 0.0 | 0.0 | 0.00 | 0.00 | 0.00 | 84 | |
| 20260507070004 | 5 | 0 | 0.0 | 0.0 | 0.00 | 0.00 | 0.00 | 84 | |
| 20260507065902 | 5 | 0 | 0.0 | 0.0 | 0.00 | 0.00 | 0.00 | 84 | |
| 20260507065802 | 5 | 0 | 0.0 | 0.0 | 0.00 | 0.00 | 0.00 | 84 | |
| 20260507065723 | 5 | 0 | 0.0 | 0.0 | 0.00 | 0.00 | 0.00 | 84 | |
| 20260507065602 | 5 | 0 | 0.0 | 0.0 | 0.00 | 0.00 | 0.00 | 84 | |
| 20260507065502 | 5 | 0 | 0.0 | 0.0 | 0.00 | 0.00 | 0.00 | 84 | |
| 20260507065402 | 5 | 0 | 0.0 | 0.0 | 0.00 | 0.00 | 0.00 | 84 | |
| 20260507065305 | 5 | 0 | 0.0 | 0.0 | 0.00 | 0.00 | 0.00 | 84 | |
| 20260507065202 | 5 | 0 | 0.0 | 0.0 | 0.00 | 0.00 | 0.00 | 84 | |
| 20260507065102 | 5 | 0 | 0.0 | 0.0 | 0.00 | 0.00 | 0.00 | 84 | |
| 20260507065002 | 5 | 0 | 0.0 | 0.0 | 0.00 | 0.00 | 0.00 | 84 | |
| 20260507064902 | 5 | 0 | 0.0 | 0.0 | 0.00 | 0.00 | 0.00 | 84 | |
| 20260507064823 | 5 | 0 | 0.0 | 0.0 | 0.00 | 0.00 | 0.00 | 84 | |
| 20260507064702 | 5 | 0 | 0.0 | 0.0 | 0.00 | 0.00 | 0.00 | 84 | |
| 20260507064602 | 5 | 0 | 0.0 | 0.0 | 0.00 | 0.00 | 0.00 | 84 | |
| 20260507064523 | 5 | 0 | 0.0 | 0.0 | 0.00 | 0.00 | 0.00 | 84 | |
| 20260507064423 | 5 | 0 | 0.0 | 0.0 | 0.00 | 0.00 | 0.00 | 84 | |
| 20260507064323 | 5 | 0 | 0.0 | 0.0 | 0.00 | 0.00 | 0.00 | 84 | |
| 20260507064223 | 5 | 0 | 0.0 | 0.0 | 0.00 | 0.00 | 0.00 | 84 | |
| 20260507064104 | 5 | 0 | 0.0 | 0.0 | 0.00 | 0.00 | 0.00 | 84 | |
| 20260507064002 | 5 | 0 | 0.0 | 0.0 | 0.00 | 0.00 | 0.00 | 84 | |
| 20260507063902 | 5 | 0 | 0.0 | 0.0 | 0.00 | 0.00 | 0.00 | 84 | |
| 20260507063823 | 5 | 0 | 0.0 | 0.0 | 0.00 | 0.00 | 0.00 | 84 | |
| 20260507063702 | 5 | 0 | 0.0 | 0.0 | 0.00 | 0.00 | 0.00 | 84 | |
| 20260507063602 | 5 | 0 | 0.0 | 0.0 | 0.00 | 0.00 | 0.00 | 84 | |
| 20260507063502 | 5 | 0 | 0.0 | 0.0 | 0.00 | 0.00 | 0.00 | 84 | |
| 20260507063402 | 5 | 0 | 0.0 | 0.0 | 0.00 | 0.00 | 0.00 | 84 | |
| 20260507063302 | 5 | 0 | 0.0 | 0.0 | 0.00 | 0.00 | 0.00 | 84 | |
| 20260507063202 | 5 | 0 | 0.0 | 0.0 | 0.00 | 0.00 | 0.00 | 84 | |
| 20260507063102 | 5 | 0 | 0.0 | 0.0 | 0.00 | 0.00 | 0.00 | 84 | |
| 20260507063002 | 5 | 0 | 0.0 | 0.0 | 0.00 | 0.00 | 0.00 | 84 | |
| 20260507062902 | 5 | 0 | 0.0 | 0.0 | 0.00 | 0.00 | 0.00 | 84 | |
| 20260507062802 | 5 | 0 | 0.0 | 0.0 | 0.00 | 0.00 | 0.00 | 84 | |
| 20260507062702 | 5 | 0 | 0.0 | 0.0 | 0.00 | 0.00 | 0.00 | 84 | |
| 20260507062602 | 5 | 0 | 0.0 | 0.0 | 0.00 | 0.00 | 0.00 | 84 | |
| 20260507062523 | 5 | 0 | 0.0 | 0.0 | 0.00 | 0.00 | 0.00 | 84 | |
| 20260507062402 | 5 | 0 | 0.0 | 0.0 | 0.00 | 0.00 | 0.00 | 84 | |
| 20260507062305 | 5 | 0 | 0.0 | 0.0 | 0.00 | 0.00 | 0.00 | 84 | |
| 20260507062202 | 5 | 0 | 0.0 | 0.0 | 0.00 | 0.00 | 0.00 | 84 | |
| 20260507062102 | 5 | 0 | 0.0 | 0.0 | 0.00 | 0.00 | 0.00 | 84 | |
| 20260507062002 | 5 | 0 | 0.0 | 0.0 | 0.00 | 0.00 | 0.00 | 84 | |
| 20260507061902 | 5 | 0 | 0.0 | 0.0 | 0.00 | 0.00 | 0.00 | 84 | |
| 20260507061802 | 5 | 0 | 0.0 | 0.0 | 0.00 | 0.00 | 0.00 | 84 | |
| 20260507061702 | 5 | 0 | 0.0 | 0.0 | 0.00 | 0.00 | 0.00 | 84 | |
| 20260507061602 | 5 | 0 | 0.0 | 0.0 | 0.00 | 0.00 | 0.00 | 84 | |
| 20260507061502 | 5 | 0 | 0.0 | 0.0 | 0.00 | 0.00 | 0.00 | 84 | |
| 20260507061402 | 5 | 0 | 0.0 | 0.0 | 0.00 | 0.00 | 0.00 | 84 | |
| 20260507061302 | 5 | 0 | 0.0 | 0.0 | 0.00 | 0.00 | 0.00 | 84 | |
| 20260507061202 | 5 | 0 | 0.0 | 0.0 | 0.00 | 0.00 | 0.00 | 84 | |
| 20260507061102 | 5 | 0 | 0.0 | 0.0 | 0.00 | 0.00 | 0.00 | 84 | |
| 20260507061004 | 5 | 0 | 0.0 | 0.0 | 0.00 | 0.00 | 0.00 | 84 | |
| 20260507060902 | 5 | 0 | 0.0 | 0.0 | 0.00 | 0.00 | 0.00 | 84 | |
| 20260507060824 | 5 | 0 | 0.0 | 0.0 | 0.00 | 0.00 | 0.00 | 84 | |
| 20260507060703 | 5 | 0 | 0.0 | 0.0 | 0.00 | 0.00 | 0.00 | 84 | |
| 20260507060602 | 5 | 0 | 0.0 | 0.0 | 0.00 | 0.00 | 0.00 | 84 | |
| 20260507060503 | 5 | 0 | 0.0 | 0.0 | 0.00 | 0.00 | 0.00 | 84 | |
| 20260507060402 | 5 | 0 | 0.0 | 0.0 | 0.00 | 0.00 | 0.00 | 84 | |
| 20260507060302 | 5 | 0 | 0.0 | 0.0 | 0.00 | 0.00 | 0.00 | 84 | |
| 20260507060202 | 5 | 0 | 0.0 | 0.0 | 0.00 | 0.00 | 0.00 | 84 | |
| 20260507060002 | 5 | 0 | 0.0 | 0.0 | 0.00 | 0.00 | 0.00 | 84 | |
| 20260507055903 | 5 | 0 | 0.0 | 0.0 | 0.00 | 0.00 | 0.00 | 84 | |
| 20260507055802 | 5 | 0 | 0.0 | 0.0 | 0.00 | 0.00 | 0.00 | 84 | |
| 20260507055702 | 5 | 0 | 0.0 | 0.0 | 0.00 | 0.00 | 0.00 | 84 | |
| 20260507055602 | 5 | 0 | 0.0 | 0.0 | 0.00 | 0.00 | 0.00 | 84 | |
| 20260507055502 | 5 | 0 | 0.0 | 0.0 | 0.00 | 0.00 | 0.00 | 84 | |
| 20260507055402 | 5 | 0 | 0.0 | 0.0 | 0.00 | 0.00 | 0.00 | 84 | |
| 20260507055305 | 5 | 0 | 0.0 | 0.0 | 0.00 | 0.00 | 0.00 | 84 | |
| 20260507055202 | 5 | 0 | 0.0 | 0.0 | 0.00 | 0.00 | 0.00 | 84 | |
| 20260507055102 | 5 | 0 | 0.0 | 0.0 | 0.00 | 0.00 | 0.00 | 84 | |
| 20260507055005 | 5 | 0 | 0.0 | 0.0 | 0.00 | 0.00 | 0.00 | 84 | |
| 20260507054902 | 5 | 0 | 0.0 | 0.0 | 0.00 | 0.00 | 0.00 | 84 | |
| 20260507054802 | 5 | 0 | 0.0 | 0.0 | 0.00 | 0.00 | 0.00 | 84 | |
| 20260507054702 | 5 | 0 | 0.0 | 0.0 | 0.00 | 0.00 | 0.00 | 84 | |
| 20260507054602 | 5 | 0 | 0.0 | 0.0 | 0.00 | 0.00 | 0.00 | 84 | |
| 20260507054502 | 5 | 0 | 0.0 | 0.0 | 0.00 | 0.00 | 0.00 | 84 | |
| 20260507054402 | 5 | 0 | 0.0 | 0.0 | 0.00 | 0.00 | 0.00 | 84 | |
| 20260507054302 | 5 | 0 | 0.0 | 0.0 | 0.00 | 0.00 | 0.00 | 84 | |
| 20260507054202 | 5 | 0 | 0.0 | 0.0 | 0.00 | 0.00 | 0.00 | 84 | |
| 20260507054102 | 5 | 0 | 0.0 | 0.0 | 0.00 | 0.00 | 0.00 | 84 | |
| 20260507054002 | 5 | 0 | 0.0 | 0.0 | 0.00 | 0.00 | 0.00 | 84 | |
| 20260507053902 | 5 | 0 | 0.0 | 0.0 | 0.00 | 0.00 | 0.00 | 84 | |
| 20260507053802 | 5 | 0 | 0.0 | 0.0 | 0.00 | 0.00 | 0.00 | 84 | |
| 20260507053724 | 5 | 0 | 0.0 | 0.0 | 0.00 | 0.00 | 0.00 | 84 | |
| 20260507053602 | 5 | 0 | 0.0 | 0.0 | 0.00 | 0.00 | 0.00 | 84 | |
| 20260507053502 | 5 | 0 | 0.0 | 0.0 | 0.00 | 0.00 | 0.00 | 84 | |
| 20260507053403 | 5 | 0 | 0.0 | 0.0 | 0.00 | 0.00 | 0.00 | 84 | |
| 20260507053302 | 5 | 0 | 0.0 | 0.0 | 0.00 | 0.00 | 0.00 | 84 | |
| 20260507053202 | 5 | 0 | 0.0 | 0.0 | 0.00 | 0.00 | 0.00 | 84 | |
| 20260507053104 | 5 | 0 | 0.0 | 0.0 | 0.00 | 0.00 | 0.00 | 84 | |
| 20260507053003 | 5 | 0 | 0.0 | 0.0 | 0.00 | 0.00 | 0.00 | 84 | |
| 20260507052902 | 5 | 0 | 0.0 | 0.0 | 0.00 | 0.00 | 0.00 | 84 | |
| 20260507052802 | 5 | 0 | 0.0 | 0.0 | 0.00 | 0.00 | 0.00 | 84 | |
| 20260507052702 | 5 | 0 | 0.0 | 0.0 | 0.00 | 0.00 | 0.00 | 84 | |
| 20260507052602 | 5 | 0 | 0.0 | 0.0 | 0.00 | 0.00 | 0.00 | 84 | |
| 20260507052502 | 5 | 0 | 0.0 | 0.0 | 0.00 | 0.00 | 0.00 | 84 | |
| 20260507052402 | 5 | 0 | 0.0 | 0.0 | 0.00 | 0.00 | 0.00 | 84 | |
| 20260507052306 | 5 | 0 | 0.0 | 0.0 | 0.00 | 0.00 | 0.00 | 84 | |
| 20260507052202 | 5 | 0 | 0.0 | 0.0 | 0.00 | 0.00 | 0.00 | 84 | |
| 20260507052103 | 5 | 0 | 0.0 | 0.0 | 0.00 | 0.00 | 0.00 | 84 | |
| 20260507052002 | 5 | 0 | 0.0 | 0.0 | 0.00 | 0.00 | 0.00 | 84 | |
| 20260507051902 | 5 | 0 | 0.0 | 0.0 | 0.00 | 0.00 | 0.00 | 84 | |
| 20260507051802 | 5 | 0 | 0.0 | 0.0 | 0.00 | 0.00 | 0.00 | 84 | |
| 20260507051702 | 5 | 0 | 0.0 | 0.0 | 0.00 | 0.00 | 0.00 | 84 | |
| 20260507051602 | 5 | 0 | 0.0 | 0.0 | 0.00 | 0.00 | 0.00 | 84 | |
| 20260507051523 | 5 | 0 | 0.0 | 0.0 | 0.00 | 0.00 | 0.00 | 84 | |
| 20260507051423 | 5 | 0 | 0.0 | 0.0 | 0.00 | 0.00 | 0.00 | 84 | |
| 20260507051302 | 5 | 0 | 0.0 | 0.0 | 0.00 | 0.00 | 0.00 | 84 | |
| 20260507051202 | 5 | 0 | 0.0 | 0.0 | 0.00 | 0.00 | 0.00 | 84 | |
| 20260507051103 | 5 | 0 | 0.0 | 0.0 | 0.00 | 0.00 | 0.00 | 84 | |
| 20260507051002 | 5 | 0 | 0.0 | 0.0 | 0.00 | 0.00 | 0.00 | 84 | |
| 20260507050924 | 5 | 0 | 0.0 | 0.0 | 0.00 | 0.00 | 0.00 | 84 | |
| 20260507050802 | 5 | 0 | 0.0 | 0.0 | 0.00 | 0.00 | 0.00 | 84 | |
| 20260507050723 | 5 | 0 | 0.0 | 0.0 | 0.00 | 0.00 | 0.00 | 84 | |
| 20260507050602 | 5 | 0 | 0.0 | 0.0 | 0.00 | 0.00 | 0.00 | 84 | |
| 20260507050502 | 5 | 0 | 0.0 | 0.0 | 0.00 | 0.00 | 0.00 | 84 | |
| 20260507050402 | 5 | 0 | 0.0 | 0.0 | 0.00 | 0.00 | 0.00 | 84 | |
| 20260507050323 | 5 | 0 | 0.0 | 0.0 | 0.00 | 0.00 | 0.00 | 84 | |
| 20260507050202 | 5 | 0 | 0.0 | 0.0 | 0.00 | 0.00 | 0.00 | 84 | |
| 20260507050023 | 5 | 0 | 0.0 | 0.0 | 0.00 | 0.00 | 0.00 | 84 | |
| 20260507045902 | 5 | 0 | 0.0 | 0.0 | 0.00 | 0.00 | 0.00 | 84 | |
| 20260507045802 | 5 | 0 | 0.0 | 0.0 | 0.00 | 0.00 | 0.00 | 84 | |
| 20260507045702 | 5 | 0 | 0.0 | 0.0 | 0.00 | 0.00 | 0.00 | 84 | |
| 20260507045602 | 5 | 0 | 0.0 | 0.0 | 0.00 | 0.00 | 0.00 | 84 | |
| 20260507045502 | 5 | 0 | 0.0 | 0.0 | 0.00 | 0.00 | 0.00 | 84 | |
| 20260507045402 | 5 | 0 | 0.0 | 0.0 | 0.00 | 0.00 | 0.00 | 84 | |
| 20260507045306 | 5 | 0 | 0.0 | 0.0 | 0.00 | 0.00 | 0.00 | 84 | |
| 20260507045202 | 5 | 0 | 0.0 | 0.0 | 0.00 | 0.00 | 0.00 | 84 | |
| 20260507045123 | 5 | 0 | 0.0 | 0.0 | 0.00 | 0.00 | 0.00 | 84 | |
| 20260507045023 | 5 | 0 | 0.0 | 0.0 | 0.00 | 0.00 | 0.00 | 84 | |
| 20260507044902 | 5 | 0 | 0.0 | 0.0 | 0.00 | 0.00 | 0.00 | 84 | |
| 20260507044802 | 5 | 0 | 0.0 | 0.0 | 0.00 | 0.00 | 0.00 | 84 | |
| 20260507044723 | 5 | 0 | 0.0 | 0.0 | 0.00 | 0.00 | 0.00 | 84 | |
| 20260507044602 | 5 | 0 | 0.0 | 0.0 | 0.00 | 0.00 | 0.00 | 84 | |
| 20260507044502 | 5 | 0 | 0.0 | 0.0 | 0.00 | 0.00 | 0.00 | 84 | |
| 20260507044403 | 5 | 0 | 0.0 | 0.0 | 0.00 | 0.00 | 0.00 | 84 | |
| 20260507044302 | 5 | 0 | 0.0 | 0.0 | 0.00 | 0.00 | 0.00 | 84 | |
| 20260507044202 | 5 | 0 | 0.0 | 0.0 | 0.00 | 0.00 | 0.00 | 84 | |
| 20260507044102 | 5 | 0 | 0.0 | 0.0 | 0.00 | 0.00 | 0.00 | 84 | |
| 20260507044002 | 5 | 0 | 0.0 | 0.0 | 0.00 | 0.00 | 0.00 | 84 | |
| 20260507043902 | 5 | 0 | 0.0 | 0.0 | 0.00 | 0.00 | 0.00 | 84 | |
| 20260507043802 | 5 | 0 | 0.0 | 0.0 | 0.00 | 0.00 | 0.00 | 84 | |
| 20260507043702 | 5 | 0 | 0.0 | 0.0 | 0.00 | 0.00 | 0.00 | 84 | |
| 20260507043602 | 5 | 0 | 0.0 | 0.0 | 0.00 | 0.00 | 0.00 | 84 | |
| 20260507043502 | 5 | 0 | 0.0 | 0.0 | 0.00 | 0.00 | 0.00 | 84 | |
| 20260507043403 | 5 | 0 | 0.0 | 0.0 | 0.00 | 0.00 | 0.00 | 84 | |
| 20260507043323 | 5 | 0 | 0.0 | 0.0 | 0.00 | 0.00 | 0.00 | 84 | |
| 20260507043202 | 5 | 0 | 0.0 | 0.0 | 0.00 | 0.00 | 0.00 | 84 | |
| 20260507043102 | 5 | 0 | 0.0 | 0.0 | 0.00 | 0.00 | 0.00 | 84 | |
| 20260507043003 | 5 | 0 | 0.0 | 0.0 | 0.00 | 0.00 | 0.00 | 84 | |
| 20260507042923 | 5 | 0 | 0.0 | 0.0 | 0.00 | 0.00 | 0.00 | 84 | |
| 20260507042802 | 5 | 0 | 0.0 | 0.0 | 0.00 | 0.00 | 0.00 | 84 | |
| 20260507042724 | 5 | 0 | 0.0 | 0.0 | 0.00 | 0.00 | 0.00 | 84 | |
| 20260507042603 | 5 | 0 | 0.0 | 0.0 | 0.00 | 0.00 | 0.00 | 84 | |
| 20260507042502 | 5 | 0 | 0.0 | 0.0 | 0.00 | 0.00 | 0.00 | 84 | |
| 20260507042402 | 5 | 0 | 0.0 | 0.0 | 0.00 | 0.00 | 0.00 | 84 | |
| 20260507042306 | 5 | 0 | 0.0 | 0.0 | 0.00 | 0.00 | 0.00 | 84 | |
| 20260507042223 | 5 | 0 | 0.0 | 0.0 | 0.00 | 0.00 | 0.00 | 84 | |
| 20260507042102 | 5 | 0 | 0.0 | 0.0 | 0.00 | 0.00 | 0.00 | 84 | |
| 20260507042024 | 5 | 0 | 0.0 | 0.0 | 0.00 | 0.00 | 0.00 | 84 | |
| 20260507041902 | 5 | 0 | 0.0 | 0.0 | 0.00 | 0.00 | 0.00 | 84 | |
| 20260507041802 | 5 | 0 | 0.0 | 0.0 | 0.00 | 0.00 | 0.00 | 84 | |
| 20260507041702 | 5 | 0 | 0.0 | 0.0 | 0.00 | 0.00 | 0.00 | 84 | |
| 20260507041602 | 5 | 0 | 0.0 | 0.0 | 0.00 | 0.00 | 0.00 | 84 | |
| 20260507041523 | 5 | 0 | 0.0 | 0.0 | 0.00 | 0.00 | 0.00 | 84 | |
| 20260507041402 | 5 | 0 | 0.0 | 0.0 | 0.00 | 0.00 | 0.00 | 84 | |
| 20260507041302 | 5 | 0 | 0.0 | 0.0 | 0.00 | 0.00 | 0.00 | 84 | |
| 20260507041202 | 5 | 0 | 0.0 | 0.0 | 0.00 | 0.00 | 0.00 | 84 | |
| 20260507041123 | 5 | 0 | 0.0 | 0.0 | 0.00 | 0.00 | 0.00 | 84 | |
| 20260507041002 | 5 | 0 | 0.0 | 0.0 | 0.00 | 0.00 | 0.00 | 84 | |
| 20260507040903 | 5 | 0 | 0.0 | 0.0 | 0.00 | 0.00 | 0.00 | 84 | |
| 20260507040802 | 5 | 0 | 0.0 | 0.0 | 0.00 | 0.00 | 0.00 | 84 | |
| 20260507040724 | 5 | 0 | 0.0 | 0.0 | 0.00 | 0.00 | 0.00 | 84 | |
| 20260507040602 | 5 | 0 | 0.0 | 0.0 | 0.00 | 0.00 | 0.00 | 84 | |
| 20260507040502 | 5 | 0 | 0.0 | 0.0 | 0.00 | 0.00 | 0.00 | 84 | |
| 20260507040402 | 5 | 0 | 0.0 | 0.0 | 0.00 | 0.00 | 0.00 | 84 | |
| 20260507040302 | 5 | 0 | 0.0 | 0.0 | 0.00 | 0.00 | 0.00 | 84 | |
| 20260507040202 | 5 | 0 | 0.0 | 0.0 | 0.00 | 0.00 | 0.00 | 84 | |
| 20260507040002 | 5 | 0 | 0.0 | 0.0 | 0.00 | 0.00 | 0.00 | 84 | |
| 20260507035903 | 5 | 0 | 0.0 | 0.0 | 0.00 | 0.00 | 0.00 | 84 | |
| 20260507035803 | 5 | 0 | 0.0 | 0.0 | 0.00 | 0.00 | 0.00 | 84 | |
| 20260507035702 | 5 | 0 | 0.0 | 0.0 | 0.00 | 0.00 | 0.00 | 84 | |
| 20260507035623 | 5 | 0 | 0.0 | 0.0 | 0.00 | 0.00 | 0.00 | 84 | |
| 20260507035502 | 5 | 0 | 0.0 | 0.0 | 0.00 | 0.00 | 0.00 | 84 | |
| 20260507035424 | 5 | 0 | 0.0 | 0.0 | 0.00 | 0.00 | 0.00 | 84 | |
| 20260507035323 | 5 | 0 | 0.0 | 0.0 | 0.00 | 0.00 | 0.00 | 84 | |
| 20260507035202 | 5 | 0 | 0.0 | 0.0 | 0.00 | 0.00 | 0.00 | 84 | |
| 20260507035102 | 5 | 0 | 0.0 | 0.0 | 0.00 | 0.00 | 0.00 | 84 | |
| 20260507035002 | 5 | 0 | 0.0 | 0.0 | 0.00 | 0.00 | 0.00 | 84 | |
| 20260507034902 | 5 | 0 | 0.0 | 0.0 | 0.00 | 0.00 | 0.00 | 84 | |
| 20260507034802 | 5 | 0 | 0.0 | 0.0 | 0.00 | 0.00 | 0.00 | 84 | |
| 20260507034702 | 5 | 0 | 0.0 | 0.0 | 0.00 | 0.00 | 0.00 | 84 | |
| 20260507034602 | 5 | 0 | 0.0 | 0.0 | 0.00 | 0.00 | 0.00 | 84 | |
| 20260507034502 | 5 | 0 | 0.0 | 0.0 | 0.00 | 0.00 | 0.00 | 84 | |
| 20260507034402 | 5 | 0 | 0.0 | 0.0 | 0.00 | 0.00 | 0.00 | 84 | |
| 20260507034303 | 5 | 0 | 0.0 | 0.0 | 0.00 | 0.00 | 0.00 | 84 | |
| 20260507034224 | 5 | 0 | 0.0 | 0.0 | 0.00 | 0.00 | 0.00 | 84 | |
| 20260507034102 | 5 | 0 | 0.0 | 0.0 | 0.00 | 0.00 | 0.00 | 84 | |
| 20260507034002 | 5 | 0 | 0.0 | 0.0 | 0.00 | 0.00 | 0.00 | 84 | |
| 20260507033902 | 5 | 0 | 0.0 | 0.0 | 0.00 | 0.00 | 0.00 | 84 | |
| 20260507033802 | 5 | 0 | 0.0 | 0.0 | 0.00 | 0.00 | 0.00 | 84 | |
| 20260507033702 | 5 | 0 | 0.0 | 0.0 | 0.00 | 0.00 | 0.00 | 84 | |
| 20260507033603 | 5 | 0 | 0.0 | 0.0 | 0.00 | 0.00 | 0.00 | 84 | |
| 20260507033502 | 5 | 0 | 0.0 | 0.0 | 0.00 | 0.00 | 0.00 | 84 | |
| 20260507033403 | 5 | 0 | 0.0 | 0.0 | 0.00 | 0.00 | 0.00 | 84 | |
| 20260507033302 | 5 | 0 | 0.0 | 0.0 | 0.00 | 0.00 | 0.00 | 84 | |
| 20260507033202 | 5 | 0 | 0.0 | 0.0 | 0.00 | 0.00 | 0.00 | 84 | |
| 20260507033102 | 5 | 0 | 0.0 | 0.0 | 0.00 | 0.00 | 0.00 | 84 | |
| 20260507033024 | 5 | 0 | 0.0 | 0.0 | 0.00 | 0.00 | 0.00 | 84 | |
| 20260507032902 | 5 | 0 | 0.0 | 0.0 | 0.00 | 0.00 | 0.00 | 84 | |
| 20260507032803 | 5 | 0 | 0.0 | 0.0 | 0.00 | 0.00 | 0.00 | 84 | |
| 20260507032702 | 5 | 0 | 0.0 | 0.0 | 0.00 | 0.00 | 0.00 | 84 | |
| 20260507032602 | 5 | 0 | 0.0 | 0.0 | 0.00 | 0.00 | 0.00 | 84 | |
| 20260507032502 | 5 | 0 | 0.0 | 0.0 | 0.00 | 0.00 | 0.00 | 84 | |
| 20260507032402 | 5 | 0 | 0.0 | 0.0 | 0.00 | 0.00 | 0.00 | 84 | |
| 20260507032305 | 5 | 0 | 0.0 | 0.0 | 0.00 | 0.00 | 0.00 | 84 | |
| 20260507032203 | 5 | 0 | 0.0 | 0.0 | 0.00 | 0.00 | 0.00 | 84 | |
| 20260507032102 | 5 | 0 | 0.0 | 0.0 | 0.00 | 0.00 | 0.00 | 84 | |
| 20260507032002 | 5 | 0 | 0.0 | 0.0 | 0.00 | 0.00 | 0.00 | 84 | |
| 20260507031902 | 5 | 0 | 0.0 | 0.0 | 0.00 | 0.00 | 0.00 | 84 | |
| 20260507031823 | 5 | 0 | 0.0 | 0.0 | 0.00 | 0.00 | 0.00 | 84 | |
| 20260507031702 | 5 | 0 | 0.0 | 0.0 | 0.00 | 0.00 | 0.00 | 84 | |
| 20260507031602 | 5 | 0 | 0.0 | 0.0 | 0.00 | 0.00 | 0.00 | 84 | |
| 20260507031503 | 5 | 0 | 0.0 | 0.0 | 0.00 | 0.00 | 0.00 | 84 | |
| 20260507031402 | 5 | 0 | 0.0 | 0.0 | 0.00 | 0.00 | 0.00 | 84 | |
| 20260507031302 | 5 | 0 | 0.0 | 0.0 | 0.00 | 0.00 | 0.00 | 84 | |
| 20260507031202 | 5 | 0 | 0.0 | 0.0 | 0.00 | 0.00 | 0.00 | 84 | |
| 20260507031102 | 5 | 0 | 0.0 | 0.0 | 0.00 | 0.00 | 0.00 | 84 | |
| 20260507031002 | 5 | 0 | 0.0 | 0.0 | 0.00 | 0.00 | 0.00 | 84 | |
| 20260507030902 | 5 | 0 | 0.0 | 0.0 | 0.00 | 0.00 | 0.00 | 84 | |
| 20260507030802 | 5 | 0 | 0.0 | 0.0 | 0.00 | 0.00 | 0.00 | 84 | |
| 20260507030702 | 5 | 0 | 0.0 | 0.0 | 0.00 | 0.00 | 0.00 | 84 | |
| 20260507030602 | 5 | 0 | 0.0 | 0.0 | 0.00 | 0.00 | 0.00 | 84 | |
| 20260507030502 | 5 | 0 | 0.0 | 0.0 | 0.00 | 0.00 | 0.00 | 84 | |
| 20260507030402 | 5 | 0 | 0.0 | 0.0 | 0.00 | 0.00 | 0.00 | 84 | |
| 20260507030323 | 5 | 0 | 0.0 | 0.0 | 0.00 | 0.00 | 0.00 | 84 | |
| 20260507030203 | 5 | 0 | 0.0 | 0.0 | 0.00 | 0.00 | 0.00 | 84 | |
| 20260507030003 | 5 | 0 | 0.0 | 0.0 | 0.00 | 0.00 | 0.00 | 84 | |
| 20260507025903 | 5 | 0 | 0.0 | 0.0 | 0.00 | 0.00 | 0.00 | 84 | |
| 20260507025823 | 5 | 0 | 0.0 | 0.0 | 0.00 | 0.00 | 0.00 | 84 | |
| 20260507025702 | 5 | 0 | 0.0 | 0.0 | 0.00 | 0.00 | 0.00 | 84 | |
| 20260507025603 | 5 | 0 | 0.0 | 0.0 | 0.00 | 0.00 | 0.00 | 84 | |
| 20260507025502 | 5 | 0 | 0.0 | 0.0 | 0.00 | 0.00 | 0.00 | 84 | |
| 20260507025403 | 5 | 0 | 0.0 | 0.0 | 0.00 | 0.00 | 0.00 | 84 | |
| 20260507025306 | 5 | 0 | 0.0 | 0.0 | 0.00 | 0.00 | 0.00 | 84 | |
| 20260507025202 | 5 | 0 | 0.0 | 0.0 | 0.00 | 0.00 | 0.00 | 84 | |
| 20260507025102 | 5 | 0 | 0.0 | 0.0 | 0.00 | 0.00 | 0.00 | 84 | |
| 20260507025003 | 5 | 0 | 0.0 | 0.0 | 0.00 | 0.00 | 0.00 | 84 | |
| 20260507024903 | 5 | 0 | 0.0 | 0.0 | 0.00 | 0.00 | 0.00 | 84 | |
| 20260507024803 | 5 | 0 | 0.0 | 0.0 | 0.00 | 0.00 | 0.00 | 84 | |
| 20260507024704 | 5 | 0 | 0.0 | 0.0 | 0.00 | 0.00 | 0.00 | 84 | |
| 20260507024604 | 5 | 0 | 0.0 | 0.0 | 0.00 | 0.00 | 0.00 | 84 | |
| 20260507024524 | 5 | 0 | 0.0 | 0.0 | 0.00 | 0.00 | 0.00 | 84 | |
| 20260507024424 | 5 | 0 | 0.0 | 0.0 | 0.00 | 0.00 | 0.00 | 84 | |
| 20260507024302 | 5 | 0 | 0.0 | 0.0 | 0.00 | 0.00 | 0.00 | 84 | |
| 20260507024202 | 5 | 0 | 0.0 | 0.0 | 0.00 | 0.00 | 0.00 | 84 | |
| 20260507024102 | 5 | 0 | 0.0 | 0.0 | 0.00 | 0.00 | 0.00 | 84 | |
| 20260507024023 | 5 | 0 | 0.0 | 0.0 | 0.00 | 0.00 | 0.00 | 84 | |
| 20260507023903 | 5 | 0 | 0.0 | 0.0 | 0.00 | 0.00 | 0.00 | 84 | |
| 20260507023823 | 5 | 0 | 0.0 | 0.0 | 0.00 | 0.00 | 0.00 | 84 | |
| 20260507023702 | 5 | 0 | 0.0 | 0.0 | 0.00 | 0.00 | 0.00 | 84 | |
| 20260507023603 | 5 | 0 | 0.0 | 0.0 | 0.00 | 0.00 | 0.00 | 84 | |
| 20260507023503 | 5 | 0 | 0.0 | 0.0 | 0.00 | 0.00 | 0.00 | 84 | |
| 20260507023402 | 5 | 0 | 0.0 | 0.0 | 0.00 | 0.00 | 0.00 | 84 | |
| 20260507023302 | 5 | 0 | 0.0 | 0.0 | 0.00 | 0.00 | 0.00 | 84 | |
| 20260507023202 | 5 | 0 | 0.0 | 0.0 | 0.00 | 0.00 | 0.00 | 84 | |
| 20260507023102 | 5 | 0 | 0.0 | 0.0 | 0.00 | 0.00 | 0.00 | 84 | |
| 20260507023002 | 5 | 0 | 0.0 | 0.0 | 0.00 | 0.00 | 0.00 | 84 | |
| 20260507022902 | 5 | 0 | 0.0 | 0.0 | 0.00 | 0.00 | 0.00 | 84 | |
| 20260507022802 | 5 | 0 | 0.0 | 0.0 | 0.00 | 0.00 | 0.00 | 84 | |
| 20260507022702 | 5 | 0 | 0.0 | 0.0 | 0.00 | 0.00 | 0.00 | 84 | |
| 20260507022602 | 5 | 0 | 0.0 | 0.0 | 0.00 | 0.00 | 0.00 | 84 | |
| 20260507022502 | 5 | 0 | 0.0 | 0.0 | 0.00 | 0.00 | 0.00 | 84 | |
| 20260507022402 | 5 | 0 | 0.0 | 0.0 | 0.00 | 0.00 | 0.00 | 84 | |
| 20260507022323 | 5 | 0 | 0.0 | 0.0 | 0.00 | 0.00 | 0.00 | 84 | |
| 20260507022202 | 5 | 0 | 0.0 | 0.0 | 0.00 | 0.00 | 0.00 | 84 | |
| 20260507022102 | 5 | 0 | 0.0 | 0.0 | 0.00 | 0.00 | 0.00 | 84 | |
| 20260507022002 | 5 | 0 | 0.0 | 0.0 | 0.00 | 0.00 | 0.00 | 84 | |
| 20260507021902 | 5 | 0 | 0.0 | 0.0 | 0.00 | 0.00 | 0.00 | 84 | |
| 20260507021803 | 5 | 0 | 0.0 | 0.0 | 0.00 | 0.00 | 0.00 | 84 | |
| 20260507021703 | 5 | 0 | 0.0 | 0.0 | 0.00 | 0.00 | 0.00 | 84 | |
| 20260507021602 | 5 | 0 | 0.0 | 0.0 | 0.00 | 0.00 | 0.00 | 84 | |
| 20260507021503 | 5 | 0 | 0.0 | 0.0 | 0.00 | 0.00 | 0.00 | 84 | |
| 20260507021423 | 5 | 0 | 0.0 | 0.0 | 0.00 | 0.00 | 0.00 | 84 | |
| 20260507021302 | 5 | 0 | 0.0 | 0.0 | 0.00 | 0.00 | 0.00 | 84 | |
| 20260507021202 | 5 | 0 | 0.0 | 0.0 | 0.00 | 0.00 | 0.00 | 84 | |
| 20260507021102 | 5 | 0 | 0.0 | 0.0 | 0.00 | 0.00 | 0.00 | 84 | |
| 20260507021002 | 5 | 0 | 0.0 | 0.0 | 0.00 | 0.00 | 0.00 | 84 | |
| 20260507020903 | 5 | 0 | 0.0 | 0.0 | 0.00 | 0.00 | 0.00 | 84 | |
| 20260507020823 | 5 | 0 | 0.0 | 0.0 | 0.00 | 0.00 | 0.00 | 84 | |
| 20260507020702 | 5 | 0 | 0.0 | 0.0 | 0.00 | 0.00 | 0.00 | 84 | |
| 20260507020602 | 5 | 0 | 0.0 | 0.0 | 0.00 | 0.00 | 0.00 | 84 | |
| 20260507020504 | 5 | 0 | 0.0 | 0.0 | 0.00 | 0.00 | 0.00 | 84 | |
| 20260507020402 | 5 | 0 | 0.0 | 0.0 | 0.00 | 0.00 | 0.00 | 84 | |
| 20260507020302 | 5 | 0 | 0.0 | 0.0 | 0.00 | 0.00 | 0.00 | 84 | |
| 20260507020202 | 5 | 0 | 0.0 | 0.0 | 0.00 | 0.00 | 0.00 | 84 | |
| 20260507020124 | 5 | 0 | 0.0 | 0.0 | 0.00 | 0.00 | 0.00 | 84 | |
| 20260507020003 | 5 | 0 | 0.0 | 0.0 | 0.00 | 0.00 | 0.00 | 84 | |
| 20260507015903 | 5 | 0 | 0.0 | 0.0 | 0.00 | 0.00 | 0.00 | 84 | |
| 20260507015802 | 5 | 0 | 0.0 | 0.0 | 0.00 | 0.00 | 0.00 | 84 | |
| 20260507015703 | 5 | 0 | 0.0 | 0.0 | 0.00 | 0.00 | 0.00 | 84 | |
| 20260507015603 | 5 | 0 | 0.0 | 0.0 | 0.00 | 0.00 | 0.00 | 84 | |
| 20260507015502 | 5 | 0 | 0.0 | 0.0 | 0.00 | 0.00 | 0.00 | 84 | |
| 20260507015404 | 5 | 0 | 0.0 | 0.0 | 0.00 | 0.00 | 0.00 | 84 | |
| 20260507015306 | 5 | 0 | 0.0 | 0.0 | 0.00 | 0.00 | 0.00 | 84 | |
| 20260507015223 | 5 | 0 | 0.0 | 0.0 | 0.00 | 0.00 | 0.00 | 84 | |
| 20260507015102 | 5 | 0 | 0.0 | 0.0 | 0.00 | 0.00 | 0.00 | 84 | |
| 20260507015003 | 5 | 0 | 0.0 | 0.0 | 0.00 | 0.00 | 0.00 | 84 | |
| 20260507014903 | 5 | 0 | 0.0 | 0.0 | 0.00 | 0.00 | 0.00 | 84 | |
| 20260507014802 | 5 | 0 | 0.0 | 0.0 | 0.00 | 0.00 | 0.00 | 84 | |
| 20260507014702 | 5 | 0 | 0.0 | 0.0 | 0.00 | 0.00 | 0.00 | 84 | |
| 20260507014603 | 5 | 0 | 0.0 | 0.0 | 0.00 | 0.00 | 0.00 | 84 | |
| 20260507014523 | 5 | 0 | 0.0 | 0.0 | 0.00 | 0.00 | 0.00 | 84 | |
| 20260507014402 | 5 | 0 | 0.0 | 0.0 | 0.00 | 0.00 | 0.00 | 84 | |
| 20260507014324 | 5 | 0 | 0.0 | 0.0 | 0.00 | 0.00 | 0.00 | 84 | |
| 20260507014203 | 5 | 0 | 0.0 | 0.0 | 0.00 | 0.00 | 0.00 | 84 | |
| 20260507014103 | 5 | 0 | 0.0 | 0.0 | 0.00 | 0.00 | 0.00 | 84 | |
| 20260507014002 | 5 | 0 | 0.0 | 0.0 | 0.00 | 0.00 | 0.00 | 84 | |
| 20260507013903 | 5 | 0 | 0.0 | 0.0 | 0.00 | 0.00 | 0.00 | 84 | |
| 20260507013802 | 5 | 0 | 0.0 | 0.0 | 0.00 | 0.00 | 0.00 | 84 | |
| 20260507013702 | 5 | 0 | 0.0 | 0.0 | 0.00 | 0.00 | 0.00 | 84 | |
| 20260507013602 | 5 | 0 | 0.0 | 0.0 | 0.00 | 0.00 | 0.00 | 84 | |
| 20260507013502 | 5 | 0 | 0.0 | 0.0 | 0.00 | 0.00 | 0.00 | 84 | |
| 20260507013403 | 5 | 0 | 0.0 | 0.0 | 0.00 | 0.00 | 0.00 | 84 | |
| 20260507013302 | 5 | 0 | 0.0 | 0.0 | 0.00 | 0.00 | 0.00 | 84 | |
| 20260507013223 | 5 | 0 | 0.0 | 0.0 | 0.00 | 0.00 | 0.00 | 84 | |
| 20260507013102 | 5 | 0 | 0.0 | 0.0 | 0.00 | 0.00 | 0.00 | 84 | |
| 20260507013003 | 5 | 0 | 0.0 | 0.0 | 0.00 | 0.00 | 0.00 | 84 | |
| 20260507012902 | 5 | 0 | 0.0 | 0.0 | 0.00 | 0.00 | 0.00 | 84 | |
| 20260507012803 | 5 | 0 | 0.0 | 0.0 | 0.00 | 0.00 | 0.00 | 84 | |
| 20260507012703 | 5 | 0 | 0.0 | 0.0 | 0.00 | 0.00 | 0.00 | 84 | |
| 20260507012602 | 5 | 0 | 0.0 | 0.0 | 0.00 | 0.00 | 0.00 | 84 | |
| 20260507012503 | 5 | 0 | 0.0 | 0.0 | 0.00 | 0.00 | 0.00 | 84 | |
| 20260507012402 | 5 | 0 | 0.0 | 0.0 | 0.00 | 0.00 | 0.00 | 84 | |
| 20260507012306 | 5 | 0 | 0.0 | 0.0 | 0.00 | 0.00 | 0.00 | 84 | |
| 20260507012203 | 5 | 0 | 0.0 | 0.0 | 0.00 | 0.00 | 0.00 | 84 | |
| 20260507012103 | 5 | 0 | 0.0 | 0.0 | 0.00 | 0.00 | 0.00 | 84 | |
| 20260507012002 | 5 | 0 | 0.0 | 0.0 | 0.00 | 0.00 | 0.00 | 84 | |
| 20260507011924 | 5 | 0 | 0.0 | 0.0 | 0.00 | 0.00 | 0.00 | 84 | |
| 20260507011802 | 5 | 0 | 0.0 | 0.0 | 0.00 | 0.00 | 0.00 | 84 | |
| 20260507011702 | 5 | 0 | 0.0 | 0.0 | 0.00 | 0.00 | 0.00 | 84 | |
| 20260507011603 | 5 | 0 | 0.0 | 0.0 | 0.00 | 0.00 | 0.00 | 84 | |
| 20260507011503 | 5 | 0 | 0.0 | 0.0 | 0.00 | 0.00 | 0.00 | 84 | |
| 20260507011402 | 5 | 0 | 0.0 | 0.0 | 0.00 | 0.00 | 0.00 | 84 | |
| 20260507011302 | 5 | 0 | 0.0 | 0.0 | 0.00 | 0.00 | 0.00 | 84 | |
| 20260507011224 | 5 | 0 | 0.0 | 0.0 | 0.00 | 0.00 | 0.00 | 84 | |
| 20260507011102 | 5 | 0 | 0.0 | 0.0 | 0.00 | 0.00 | 0.00 | 84 | |
| 20260507011024 | 5 | 0 | 0.0 | 0.0 | 0.00 | 0.00 | 0.00 | 84 | |
| 20260507010902 | 5 | 0 | 0.0 | 0.0 | 0.00 | 0.00 | 0.00 | 84 | |
| 20260507010803 | 5 | 0 | 0.0 | 0.0 | 0.00 | 0.00 | 0.00 | 84 | |
| 20260507010703 | 5 | 0 | 0.0 | 0.0 | 0.00 | 0.00 | 0.00 | 84 | |
| 20260507010602 | 5 | 0 | 0.0 | 0.0 | 0.00 | 0.00 | 0.00 | 84 | |
| 20260507010502 | 5 | 0 | 0.0 | 0.0 | 0.00 | 0.00 | 0.00 | 84 | |
| 20260507010402 | 5 | 0 | 0.0 | 0.0 | 0.00 | 0.00 | 0.00 | 84 | |
| 20260507010303 | 5 | 0 | 0.0 | 0.0 | 0.00 | 0.00 | 0.00 | 84 | |
| 20260507010202 | 5 | 0 | 0.0 | 0.0 | 0.00 | 0.00 | 0.00 | 84 | |
| 20260507010003 | 5 | 0 | 0.0 | 0.0 | 0.00 | 0.00 | 0.00 | 84 | |
| 20260507005903 | 5 | 0 | 0.0 | 0.0 | 0.00 | 0.00 | 0.00 | 84 | |
| 20260507005803 | 5 | 0 | 0.0 | 0.0 | 0.00 | 0.00 | 0.00 | 84 | |
| 20260507005703 | 5 | 0 | 0.0 | 0.0 | 0.00 | 0.00 | 0.00 | 84 | |
| 20260507005602 | 5 | 0 | 0.0 | 0.0 | 0.00 | 0.00 | 0.00 | 84 | |
| 20260507005502 | 5 | 0 | 0.0 | 0.0 | 0.00 | 0.00 | 0.00 | 84 | |
| 20260507005402 | 5 | 0 | 0.0 | 0.0 | 0.00 | 0.00 | 0.00 | 84 | |
| 20260507005324 | 5 | 0 | 0.0 | 0.0 | 0.00 | 0.00 | 0.00 | 84 | |
| 20260507005203 | 5 | 0 | 0.0 | 0.0 | 0.00 | 0.00 | 0.00 | 84 | |
| 20260507005103 | 5 | 0 | 0.0 | 0.0 | 0.00 | 0.00 | 0.00 | 84 | |
| 20260507005002 | 5 | 0 | 0.0 | 0.0 | 0.00 | 0.00 | 0.00 | 84 | |
| 20260507004903 | 5 | 0 | 0.0 | 0.0 | 0.00 | 0.00 | 0.00 | 84 | |
| 20260507004802 | 5 | 0 | 0.0 | 0.0 | 0.00 | 0.00 | 0.00 | 84 | |
| 20260507004703 | 5 | 0 | 0.0 | 0.0 | 0.00 | 0.00 | 0.00 | 84 | |
| 20260507004624 | 5 | 0 | 0.0 | 0.0 | 0.00 | 0.00 | 0.00 | 84 | |
| 20260507004524 | 5 | 0 | 0.0 | 0.0 | 0.00 | 0.00 | 0.00 | 84 | |
| 20260507004402 | 5 | 0 | 0.0 | 0.0 | 0.00 | 0.00 | 0.00 | 84 | |
| 20260507004323 | 5 | 0 | 0.0 | 0.0 | 0.00 | 0.00 | 0.00 | 84 | |
| 20260507004203 | 5 | 0 | 0.0 | 0.0 | 0.00 | 0.00 | 0.00 | 84 | |
| 20260507004103 | 5 | 0 | 0.0 | 0.0 | 0.00 | 0.00 | 0.00 | 84 | |
| 20260507004003 | 5 | 0 | 0.0 | 0.0 | 0.00 | 0.00 | 0.00 | 84 | |
| 20260507003903 | 5 | 0 | 0.0 | 0.0 | 0.00 | 0.00 | 0.00 | 84 | |
| 20260507003802 | 5 | 0 | 0.0 | 0.0 | 0.00 | 0.00 | 0.00 | 84 | |
| 20260507003703 | 5 | 0 | 0.0 | 0.0 | 0.00 | 0.00 | 0.00 | 84 | |
| 20260507003624 | 5 | 0 | 0.0 | 0.0 | 0.00 | 0.00 | 0.00 | 84 | |
| 20260507003502 | 5 | 0 | 0.0 | 0.0 | 0.00 | 0.00 | 0.00 | 84 | |
| 20260507003402 | 5 | 0 | 0.0 | 0.0 | 0.00 | 0.00 | 0.00 | 84 | |
| 20260507003302 | 5 | 0 | 0.0 | 0.0 | 0.00 | 0.00 | 0.00 | 84 | |
| 20260507003203 | 5 | 0 | 0.0 | 0.0 | 0.00 | 0.00 | 0.00 | 84 | |
| 20260507003103 | 5 | 0 | 0.0 | 0.0 | 0.00 | 0.00 | 0.00 | 84 | |
| 20260507003003 | 5 | 0 | 0.0 | 0.0 | 0.00 | 0.00 | 0.00 | 84 | |
| 20260507002903 | 5 | 0 | 0.0 | 0.0 | 0.00 | 0.00 | 0.00 | 84 | |
| 20260507002803 | 5 | 0 | 0.0 | 0.0 | 0.00 | 0.00 | 0.00 | 84 | |
| 20260507002703 | 5 | 0 | 0.0 | 0.0 | 0.00 | 0.00 | 0.00 | 84 | |
| 20260507002602 | 5 | 0 | 0.0 | 0.0 | 0.00 | 0.00 | 0.00 | 84 | |
| 20260507002503 | 5 | 0 | 0.0 | 0.0 | 0.00 | 0.00 | 0.00 | 84 | |
| 20260507002402 | 5 | 0 | 0.0 | 0.0 | 0.00 | 0.00 | 0.00 | 84 | |
| 20260507002305 | 5 | 0 | 0.0 | 0.0 | 0.00 | 0.00 | 0.00 | 84 | |
| 20260507002202 | 5 | 0 | 0.0 | 0.0 | 0.00 | 0.00 | 0.00 | 84 | |
| 20260507002102 | 5 | 0 | 0.0 | 0.0 | 0.00 | 0.00 | 0.00 | 84 | |
| 20260507002002 | 5 | 0 | 0.0 | 0.0 | 0.00 | 0.00 | 0.00 | 84 | |
| 20260507001903 | 5 | 0 | 0.0 | 0.0 | 0.00 | 0.00 | 0.00 | 84 | |
| 20260507001802 | 5 | 0 | 0.0 | 0.0 | 0.00 | 0.00 | 0.00 | 84 | |
| 20260507001703 | 5 | 0 | 0.0 | 0.0 | 0.00 | 0.00 | 0.00 | 84 | |
| 20260507001602 | 5 | 0 | 0.0 | 0.0 | 0.00 | 0.00 | 0.00 | 84 | |
| 20260507001502 | 5 | 0 | 0.0 | 0.0 | 0.00 | 0.00 | 0.00 | 84 | |
| 20260507001402 | 5 | 0 | 0.0 | 0.0 | 0.00 | 0.00 | 0.00 | 84 | |
| 20260507001303 | 5 | 0 | 0.0 | 0.0 | 0.00 | 0.00 | 0.00 | 84 | |
| 20260507001203 | 5 | 0 | 0.0 | 0.0 | 0.00 | 0.00 | 0.00 | 84 | |
| 20260507001102 | 5 | 0 | 0.0 | 0.0 | 0.00 | 0.00 | 0.00 | 84 | |
| 20260507001003 | 5 | 0 | 0.0 | 0.0 | 0.00 | 0.00 | 0.00 | 84 | |
| 20260507000902 | 5 | 0 | 0.0 | 0.0 | 0.00 | 0.00 | 0.00 | 84 | |
| 20260507000803 | 5 | 0 | 0.0 | 0.0 | 0.00 | 0.00 | 0.00 | 84 | |
| 20260507000703 | 5 | 0 | 0.0 | 0.0 | 0.00 | 0.00 | 0.00 | 84 | |
| 20260507000602 | 5 | 0 | 0.0 | 0.0 | 0.00 | 0.00 | 0.00 | 84 | |
| 20260507000503 | 5 | 0 | 0.0 | 0.0 | 0.00 | 0.00 | 0.00 | 84 | |
| 20260507000405 | 5 | 0 | 0.0 | 0.0 | 0.00 | 0.00 | 0.00 | 84 | |
| 20260507000302 | 5 | 0 | 0.0 | 0.0 | 0.00 | 0.00 | 0.00 | 84 | |
| 20260507000204 | 5 | 0 | 0.0 | 0.0 | 0.00 | 0.00 | 0.00 | 84 | |
| 20260507000003 | 5 | 0 | 0.0 | 0.0 | 0.00 | 0.00 | 0.00 | 84 | |
| 20260506235924 | 5 | 0 | 0.0 | 0.0 | 0.00 | 0.00 | 0.00 | 84 | |
| 20260506235802 | 5 | 0 | 0.0 | 0.0 | 0.00 | 0.00 | 0.00 | 84 | |
| 20260506235723 | 5 | 0 | 0.0 | 0.0 | 0.00 | 0.00 | 0.00 | 84 | |
| 20260506235602 | 5 | 0 | 0.0 | 0.0 | 0.00 | 0.00 | 0.00 | 84 | |
| 20260506235503 | 5 | 0 | 0.0 | 0.0 | 0.00 | 0.00 | 0.00 | 84 | |
| 20260506235403 | 5 | 0 | 0.0 | 0.0 | 0.00 | 0.00 | 0.00 | 84 | |
| 20260506235306 | 5 | 0 | 0.0 | 0.0 | 0.00 | 0.00 | 0.00 | 84 | |
| 20260506235203 | 5 | 0 | 0.0 | 0.0 | 0.00 | 0.00 | 0.00 | 84 | |
| 20260506235103 | 5 | 0 | 0.0 | 0.0 | 0.00 | 0.00 | 0.00 | 84 | |
| 20260506235003 | 5 | 0 | 0.0 | 0.0 | 0.00 | 0.00 | 0.00 | 84 | |
| 20260506234903 | 5 | 0 | 0.0 | 0.0 | 0.00 | 0.00 | 0.00 | 84 | |
| 20260506234802 | 5 | 0 | 0.0 | 0.0 | 0.00 | 0.00 | 0.00 | 84 | |
| 20260506234703 | 5 | 0 | 0.0 | 0.0 | 0.00 | 0.00 | 0.00 | 84 | |
| 20260506234603 | 5 | 0 | 0.0 | 0.0 | 0.00 | 0.00 | 0.00 | 84 | |
| 20260506234503 | 5 | 0 | 0.0 | 0.0 | 0.00 | 0.00 | 0.00 | 84 | |
| 20260506234402 | 5 | 0 | 0.0 | 0.0 | 0.00 | 0.00 | 0.00 | 84 | |
| 20260506234323 | 5 | 0 | 0.0 | 0.0 | 0.00 | 0.00 | 0.00 | 84 | |
| 20260506234204 | 5 | 0 | 0.0 | 0.0 | 0.00 | 0.00 | 0.00 | 84 | |
| 20260506234103 | 5 | 0 | 0.0 | 0.0 | 0.00 | 0.00 | 0.00 | 84 | |
| 20260506234024 | 5 | 0 | 0.0 | 0.0 | 0.00 | 0.00 | 0.00 | 84 | |
| 20260506233902 | 5 | 0 | 0.0 | 0.0 | 0.00 | 0.00 | 0.00 | 84 | |
| 20260506233803 | 5 | 0 | 0.0 | 0.0 | 0.00 | 0.00 | 0.00 | 84 | |
| 20260506233702 | 5 | 0 | 0.0 | 0.0 | 0.00 | 0.00 | 0.00 | 84 | |
| 20260506233602 | 5 | 0 | 0.0 | 0.0 | 0.00 | 0.00 | 0.00 | 84 | |
| 20260506233503 | 5 | 0 | 0.0 | 0.0 | 0.00 | 0.00 | 0.00 | 84 | |
| 20260506233402 | 5 | 0 | 0.0 | 0.0 | 0.00 | 0.00 | 0.00 | 84 | |
| 20260506233303 | 5 | 0 | 0.0 | 0.0 | 0.00 | 0.00 | 0.00 | 84 | |
| 20260506233203 | 5 | 0 | 0.0 | 0.0 | 0.00 | 0.00 | 0.00 | 84 | |
| 20260506233103 | 5 | 0 | 0.0 | 0.0 | 0.00 | 0.00 | 0.00 | 84 | |
| 20260506233002 | 5 | 0 | 0.0 | 0.0 | 0.00 | 0.00 | 0.00 | 84 | |
| 20260506232903 | 5 | 0 | 0.0 | 0.0 | 0.00 | 0.00 | 0.00 | 84 | |
| 20260506232802 | 5 | 0 | 0.0 | 0.0 | 0.00 | 0.00 | 0.00 | 84 | |
| 20260506232703 | 5 | 0 | 0.0 | 0.0 | 0.00 | 0.00 | 0.00 | 84 | |
| 20260506232602 | 5 | 0 | 0.0 | 0.0 | 0.00 | 0.00 | 0.00 | 84 | |
| 20260506232524 | 5 | 0 | 0.0 | 0.0 | 0.00 | 0.00 | 0.00 | 84 | |
| 20260506232403 | 5 | 0 | 0.0 | 0.0 | 0.00 | 0.00 | 0.00 | 84 | |
| 20260506232324 | 5 | 0 | 0.0 | 0.0 | 0.00 | 0.00 | 0.00 | 84 | |
| 20260506232202 | 5 | 0 | 0.0 | 0.0 | 0.00 | 0.00 | 0.00 | 84 | |
| 20260506232102 | 5 | 0 | 0.0 | 0.0 | 0.00 | 0.00 | 0.00 | 84 | |
| 20260506232002 | 5 | 0 | 0.0 | 0.0 | 0.00 | 0.00 | 0.00 | 84 | |
| 20260506231903 | 5 | 0 | 0.0 | 0.0 | 0.00 | 0.00 | 0.00 | 84 | |
| 20260506231803 | 5 | 0 | 0.0 | 0.0 | 0.00 | 0.00 | 0.00 | 84 | |
| 20260506231702 | 5 | 0 | 0.0 | 0.0 | 0.00 | 0.00 | 0.00 | 84 | |
| 20260506231603 | 5 | 0 | 0.0 | 0.0 | 0.00 | 0.00 | 0.00 | 84 | |
| 20260506231502 | 5 | 0 | 0.0 | 0.0 | 0.00 | 0.00 | 0.00 | 84 | |
| 20260506231424 | 5 | 0 | 0.0 | 0.0 | 0.00 | 0.00 | 0.00 | 84 | |
| 20260506231302 | 5 | 0 | 0.0 | 0.0 | 0.00 | 0.00 | 0.00 | 84 | |
| 20260506231203 | 5 | 0 | 0.0 | 0.0 | 0.00 | 0.00 | 0.00 | 84 | |
| 20260506231102 | 5 | 0 | 0.0 | 0.0 | 0.00 | 0.00 | 0.00 | 84 | |
| 20260506231003 | 5 | 0 | 0.0 | 0.0 | 0.00 | 0.00 | 0.00 | 84 | |
| 20260506230903 | 5 | 0 | 0.0 | 0.0 | 0.00 | 0.00 | 0.00 | 84 | |
| 20260506230803 | 5 | 0 | 0.0 | 0.0 | 0.00 | 0.00 | 0.00 | 84 | |
| 20260506230724 | 5 | 0 | 0.0 | 0.0 | 0.00 | 0.00 | 0.00 | 84 | |
| 20260506230604 | 5 | 0 | 0.0 | 0.0 | 0.00 | 0.00 | 0.00 | 84 | |
| 20260506230523 | 5 | 0 | 0.0 | 0.0 | 0.00 | 0.00 | 0.00 | 84 | |
| 20260506230402 | 5 | 0 | 0.0 | 0.0 | 0.00 | 0.00 | 0.00 | 84 | |
| 20260506230302 | 5 | 0 | 0.0 | 0.0 | 0.00 | 0.00 | 0.00 | 84 | |
| 20260506230202 | 5 | 0 | 0.0 | 0.0 | 0.00 | 0.00 | 0.00 | 84 | |
| 20260506230103 | 5 | 0 | 0.0 | 0.0 | 0.00 | 0.00 | 0.00 | 84 | |
| 20260506230003 | 5 | 0 | 0.0 | 0.0 | 0.00 | 0.00 | 0.00 | 84 | |
| 20260506225904 | 5 | 122 | 0.0 | 1.6 | 0.00 | 0.00 | 0.00 | 84 | |
| 20260506225803 | 5 | 122 | 0.0 | 1.6 | 0.00 | 0.00 | 0.00 | 84 | |
| 20260506225703 | 5 | 122 | 0.0 | 3.2 | 0.00 | 0.00 | 0.00 | 84 | |
| 20260506225602 | 5 | 122 | 0.0 | 3.2 | 0.00 | 0.00 | 0.00 | 84 | |
| 20260506225503 | 5 | 122 | 0.0 | 3.2 | 0.00 | 0.00 | 0.00 | 84 | |
| 20260506225423 | 5 | 122 | 0.0 | 3.2 | 0.00 | 0.00 | 0.00 | 84 | |
| 20260506225305 | 5 | 122 | 0.0 | 3.2 | 0.00 | 0.00 | 0.00 | 84 | |
| 20260506225203 | 5 | 122 | 1.6 | 3.2 | 0.00 | 0.00 | 0.00 | 84 | |
| 20260506225102 | 5 | 122 | 1.6 | 3.2 | 0.00 | 0.00 | 0.00 | 84 | |
| 20260506225002 | 5 | 122 | 1.6 | 4.8 | 0.00 | 0.00 | 0.00 | 84 | |
| 20260506224903 | 5 | 122 | 1.6 | 4.8 | 0.00 | 0.00 | 0.00 | 84 | |
| 20260506224803 | 5 | 122 | 1.6 | 4.8 | 0.00 | 0.00 | 0.00 | 84 | |
| 20260506224702 | 5 | 122 | 1.6 | 4.8 | 0.00 | 0.00 | 0.00 | 84 | |
| 20260506224603 | 5 | 122 | 1.6 | 4.8 | 0.00 | 0.00 | 0.00 | 84 | |
| 20260506224503 | 5 | 122 | 1.6 | 4.8 | 0.00 | 0.00 | 0.00 | 85 | |
| 20260506224402 | 5 | 123 | 1.6 | 4.8 | 0.00 | 0.00 | 0.00 | 85 | |
| 20260506224303 | 5 | 124 | 1.6 | 6.4 | 0.00 | 0.00 | 0.00 | 85 | |
| 20260506224203 | 5 | 124 | 1.6 | 6.4 | 0.00 | 0.00 | 0.00 | 85 | |
| 20260506224124 | 5 | 125 | 1.6 | 6.4 | 0.00 | 0.00 | 0.00 | 85 | |
| 20260506224003 | 5 | 126 | 3.2 | 6.4 | 0.00 | 0.00 | 0.00 | 85 | |
| 20260506223903 | 5 | 125 | 3.2 | 6.4 | 0.00 | 0.00 | 0.00 | 85 | |
| 20260506223803 | 5 | 125 | 3.2 | 6.4 | 0.00 | 0.00 | 0.00 | 85 | |
| 20260506223724 | 5 | 124 | 3.2 | 6.4 | 0.00 | 0.00 | 0.00 | 85 | |
| 20260506223603 | 5 | 124 | 3.2 | 6.4 | 0.00 | 0.00 | 0.00 | 85 | |
| 20260506223503 | 5 | 123 | 1.6 | 6.4 | 0.00 | 0.00 | 0.00 | 85 | |
| 20260506223403 | 5 | 123 | 1.6 | 6.4 | 0.00 | 0.00 | 0.00 | 85 | |
| 20260506223303 | 5 | 122 | 1.6 | 6.4 | 0.00 | 0.00 | 0.00 | 85 | |
| 20260506223203 | 5 | 121 | 1.6 | 6.4 | 0.00 | 0.00 | 0.00 | 85 | |
| 20260506223103 | 5 | 119 | 1.6 | 6.4 | 0.00 | 0.00 | 0.00 | 85 | |
| 20260506223003 | 5 | 116 | 1.6 | 6.4 | 0.00 | 0.00 | 0.00 | 85 | |
| 20260506222924 | 5 | 116 | 1.6 | 6.4 | 0.00 | 0.00 | 0.00 | 85 | |
| 20260506222803 | 5 | 114 | 1.6 | 6.4 | 0.00 | 0.00 | 0.00 | 85 | |
| 20260506222703 | 5 | 114 | 0.0 | 3.2 | 0.00 | 0.00 | 0.00 | 85 | |
| 20260506222603 | 5 | 114 | 0.0 | 3.2 | 0.00 | 0.00 | 0.00 | 84 | |
| 20260506222503 | 5 | 114 | 0.0 | 3.2 | 0.00 | 0.00 | 0.00 | 85 | |
| 20260506222403 | 5 | 114 | 0.0 | 3.2 | 0.00 | 0.00 | 0.00 | 85 | |
| 20260506222324 | 5 | 114 | 0.0 | 3.2 | 0.00 | 0.00 | 0.00 | 85 | |
| 20260506222203 | 5 | 114 | 0.0 | 3.2 | 0.00 | 0.00 | 0.00 | 84 | |
| 20260506222102 | 5 | 114 | 0.0 | 3.2 | 0.00 | 0.00 | 0.00 | 84 | |
| 20260506222003 | 5 | 114 | 0.0 | 3.2 | 0.00 | 0.00 | 0.00 | 84 | |
| 20260506221923 | 5 | 114 | 0.0 | 3.2 | 0.00 | 0.00 | 0.00 | 84 | |
| 20260506221825 | 5 | 113 | 0.0 | 1.6 | 0.00 | 0.00 | 0.00 | 84 | |
| 20260506221702 | 5 | 0 | 0.0 | 0.0 | 0.00 | 0.00 | 0.00 | 84 | |
| 20260506221624 | 5 | 0 | 0.0 | 0.0 | 0.00 | 0.00 | 0.00 | 84 | |
| 20260506221502 | 5 | 0 | 0.0 | 0.0 | 0.00 | 0.00 | 0.00 | 84 | |
| 20260506221403 | 5 | 0 | 0.0 | 0.0 | 0.00 | 0.00 | 0.00 | 84 | |
| 20260506221304 | 5 | 0 | 0.0 | 0.0 | 0.00 | 0.00 | 0.00 | 84 | |
| 20260506221202 | 5 | 0 | 0.0 | 0.0 | 0.00 | 0.00 | 0.00 | 84 | |
| 20260506221102 | 5 | 0 | 0.0 | 0.0 | 0.00 | 0.00 | 0.00 | 84 | |
| 20260506221002 | 5 | 0 | 0.0 | 0.0 | 0.00 | 0.00 | 0.00 | 84 | |
| 20260506220924 | 5 | 0 | 0.0 | 0.0 | 0.00 | 0.00 | 0.00 | 83 | |
| 20260506220824 | 5 | 114 | 0.0 | 1.6 | 0.00 | 0.00 | 0.00 | 83 | |
| 20260506220703 | 5 | 114 | 0.0 | 1.6 | 0.00 | 0.00 | 0.00 | 83 | |
| 20260506220603 | 5 | 114 | 0.0 | 1.6 | 0.00 | 0.00 | 0.00 | 83 | |
| 20260506220503 | 5 | 114 | 0.0 | 1.6 | 0.00 | 0.00 | 0.00 | 82 | |
| 20260506220424 | 5 | 114 | 0.0 | 1.6 | 0.00 | 0.00 | 0.00 | 82 | |
| 20260506220302 | 5 | 114 | 0.0 | 1.6 | 0.00 | 0.00 | 0.00 | 82 | |
| 20260506220203 | 5 | 114 | 0.0 | 1.6 | 0.00 | 0.00 | 0.00 | 82 | |
| 20260506220003 | 5 | 114 | 0.0 | 1.6 | 0.00 | 0.00 | 0.00 | 82 | |
| 20260506215903 | 5 | 114 | 0.0 | 1.6 | 0.00 | 0.00 | 0.00 | 82 | |
| 20260506215803 | 5 | 114 | 0.0 | 1.6 | 0.00 | 0.00 | 0.00 | 82 | |
| 20260506215703 | 5 | 114 | 0.0 | 1.6 | 0.00 | 0.00 | 0.00 | 82 | |
| 20260506215603 | 5 | 114 | 0.0 | 1.6 | 0.00 | 0.00 | 0.00 | 82 | |
| 20260506215503 | 6 | 114 | 0.0 | 1.6 | 0.00 | 0.00 | 0.00 | 82 | |
| 20260506215403 | 6 | 114 | 0.0 | 3.2 | 0.00 | 0.00 | 0.00 | 82 | |
| 20260506215306 | 6 | 114 | 0.0 | 3.2 | 0.00 | 0.00 | 0.00 | 81 | |
| 20260506215203 | 6 | 114 | 0.0 | 3.2 | 0.00 | 0.00 | 0.00 | 81 | |
| 20260506215103 | 6 | 114 | 1.6 | 4.8 | 0.00 | 0.00 | 0.00 | 81 | |
| 20260506215003 | 6 | 115 | 1.6 | 8.0 | 0.00 | 0.00 | 0.00 | 81 | |
| 20260506214903 | 6 | 114 | 1.6 | 8.0 | 0.00 | 0.00 | 0.00 | 81 | |
| 20260506214823 | 6 | 114 | 1.6 | 8.0 | 0.00 | 0.00 | 0.00 | 81 | |
| 20260506214703 | 6 | 112 | 1.6 | 8.0 | 0.00 | 0.00 | 0.00 | 81 | |
| 20260506214603 | 6 | 111 | 3.2 | 8.0 | 0.00 | 0.00 | 0.00 | 81 | |
| 20260506214503 | 6 | 108 | 3.2 | 8.0 | 0.00 | 0.00 | 0.00 | 81 | |
| 20260506214403 | 6 | 108 | 3.2 | 8.0 | 0.00 | 0.00 | 0.00 | 81 | |
| 20260506214303 | 6 | 107 | 4.8 | 9.7 | 0.00 | 0.00 | 0.00 | 81 | |
| 20260506214203 | 6 | 105 | 4.8 | 9.7 | 0.00 | 0.00 | 0.00 | 81 | |
| 20260506214103 | 6 | 104 | 4.8 | 9.7 | 0.00 | 0.00 | 0.00 | 81 | |
| 20260506214003 | 6 | 104 | 4.8 | 9.7 | 0.00 | 0.00 | 0.00 | 81 | |
| 20260506213924 | 6 | 103 | 4.8 | 9.7 | 0.00 | 0.00 | 0.00 | 81 | |
| 20260506213803 | 6 | 103 | 6.4 | 9.7 | 0.00 | 0.00 | 0.00 | 81 | |
| 20260506213724 | 6 | 103 | 6.4 | 9.7 | 0.00 | 0.00 | 0.00 | 81 | |
| 20260506213603 | 6 | 103 | 6.4 | 9.7 | 0.00 | 0.00 | 0.00 | 81 | |
| 20260506213524 | 6 | 103 | 6.4 | 9.7 | 0.00 | 0.00 | 0.00 | 81 | |
| 20260506213403 | 6 | 103 | 8.0 | 11.3 | 0.00 | 0.00 | 0.00 | 81 | |
| 20260506213303 | 6 | 103 | 8.0 | 11.3 | 0.00 | 0.00 | 0.00 | 81 | |
| 20260506213204 | 6 | 103 | 8.0 | 11.3 | 0.00 | 0.00 | 0.00 | 81 | |
| 20260506213124 | 6 | 103 | 8.0 | 11.3 | 0.00 | 0.00 | 0.00 | 81 | |
| 20260506213003 | 6 | 103 | 8.0 | 11.3 | 0.00 | 0.00 | 0.00 | 81 | |
| 20260506212924 | 6 | 103 | 8.0 | 11.3 | 0.00 | 0.00 | 0.00 | 81 | |
| 20260506212803 | 6 | 102 | 8.0 | 11.3 | 0.00 | 0.00 | 0.00 | 81 | |
| 20260506212703 | 6 | 103 | 8.0 | 11.3 | 0.00 | 0.00 | 0.00 | 81 | |
| 20260506212603 | 6 | 103 | 8.0 | 11.3 | 0.00 | 0.00 | 0.00 | 81 | |
| 20260506212524 | 6 | 104 | 6.4 | 11.3 | 0.00 | 0.00 | 0.00 | 81 | |
| 20260506212424 | 6 | 105 | 6.4 | 11.3 | 0.00 | 0.00 | 0.00 | 81 | |
| 20260506212306 | 6 | 106 | 6.4 | 11.3 | 0.00 | 0.00 | 0.00 | 81 | |
| 20260506212202 | 6 | 108 | 6.4 | 11.3 | 0.00 | 0.00 | 0.00 | 81 | |
| 20260506212103 | 6 | 108 | 6.4 | 11.3 | 0.00 | 0.00 | 0.00 | 81 | |
| 20260506212003 | 6 | 110 | 6.4 | 11.3 | 0.00 | 0.00 | 0.00 | 81 | |
| 20260506211903 | 6 | 112 | 6.4 | 11.3 | 0.00 | 0.00 | 0.00 | 81 | |
| 20260506211824 | 6 | 113 | 6.4 | 11.3 | 0.00 | 0.00 | 0.00 | 81 | |
| 20260506211704 | 6 | 112 | 6.4 | 11.3 | 0.00 | 0.00 | 0.00 | 81 | |
| 20260506211624 | 6 | 112 | 4.8 | 11.3 | 0.00 | 0.00 | 0.00 | 81 | |
| 20260506211503 | 6 | 110 | 6.4 | 9.7 | 0.00 | 0.00 | 0.00 | 81 | |
| 20260506211403 | 6 | 109 | 6.4 | 9.7 | 0.00 | 0.00 | 0.00 | 80 | |
| 20260506211303 | 6 | 107 | 6.4 | 9.7 | 0.00 | 0.00 | 0.00 | 80 | |
| 20260506211203 | 6 | 107 | 6.4 | 9.7 | 0.00 | 0.00 | 0.00 | 80 | |
| 20260506211104 | 6 | 107 | 6.4 | 9.7 | 0.00 | 0.00 | 0.00 | 80 | |
| 20260506211003 | 6 | 105 | 4.8 | 9.7 | 0.00 | 0.00 | 0.00 | 80 | |
| 20260506210924 | 6 | 104 | 4.8 | 9.7 | 0.00 | 0.00 | 0.00 | 80 | |
| 20260506210803 | 6 | 103 | 6.4 | 9.7 | 0.00 | 0.00 | 0.00 | 80 | |
| 20260506210703 | 6 | 103 | 6.4 | 9.7 | 0.00 | 0.00 | 0.00 | 80 | |
| 20260506210603 | 6 | 103 | 6.4 | 9.7 | 0.00 | 0.00 | 0.00 | 80 | |
| 20260506210524 | 6 | 103 | 4.8 | 9.7 | 0.00 | 0.00 | 0.00 | 80 | |
| 20260506210403 | 6 | 103 | 4.8 | 9.7 | 0.00 | 0.00 | 0.00 | 80 | |
| 20260506210303 | 6 | 103 | 4.8 | 9.7 | 0.00 | 0.00 | 0.00 | 80 | |
| 20260506210224 | 6 | 103 | 4.8 | 9.7 | 0.00 | 0.00 | 0.00 | 80 | |
| 20260506210003 | 6 | 102 | 4.8 | 9.7 | 0.00 | 0.00 | 0.00 | 80 | |
| 20260506205904 | 6 | 102 | 4.8 | 9.7 | 0.00 | 0.00 | 0.00 | 80 | |
| 20260506205803 | 6 | 102 | 4.8 | 9.7 | 0.00 | 0.00 | 0.00 | 80 | |
| 20260506205703 | 6 | 102 | 4.8 | 9.7 | 0.00 | 0.00 | 0.00 | 79 | |
| 20260506205603 | 6 | 102 | 4.8 | 8.0 | 0.00 | 0.00 | 0.00 | 79 | |
| 20260506205503 | 6 | 103 | 3.2 | 8.0 | 0.00 | 0.00 | 0.00 | 79 | |
| 20260506205424 | 6 | 103 | 3.2 | 8.0 | 0.00 | 0.00 | 0.00 | 79 | |
| 20260506205305 | 6 | 104 | 3.2 | 8.0 | 0.00 | 0.00 | 0.00 | 79 | |
| 20260506205203 | 6 | 105 | 3.2 | 8.0 | 0.00 | 0.00 | 0.00 | 79 | |
| 20260506205104 | 6 | 106 | 3.2 | 8.0 | 0.00 | 0.00 | 0.00 | 79 | |
| 20260506205003 | 6 | 106 | 3.2 | 8.0 | 0.00 | 0.00 | 0.00 | 79 | |
| 20260506204924 | 6 | 107 | 3.2 | 8.0 | 0.00 | 0.00 | 0.00 | 79 | |
| 20260506204803 | 6 | 107 | 3.2 | 8.0 | 0.00 | 0.00 | 0.00 | 78 | |
| 20260506204703 | 6 | 106 | 3.2 | 6.4 | 0.00 | 0.00 | 0.00 | 78 | |
| 20260506204603 | 6 | 106 | 3.2 | 6.4 | 0.00 | 0.00 | 0.00 | 78 | |
| 20260506204502 | 6 | 106 | 3.2 | 6.4 | 0.00 | 0.00 | 0.00 | 78 | |
| 20260506204403 | 6 | 106 | 3.2 | 6.4 | 0.00 | 0.00 | 0.00 | 78 | |
| 20260506204303 | 6 | 106 | 3.2 | 8.0 | 0.00 | 0.00 | 0.00 | 78 | |
| 20260506204203 | 6 | 105 | 3.2 | 8.0 | 0.00 | 0.00 | 0.00 | 78 | |
| 20260506204103 | 6 | 104 | 3.2 | 8.0 | 0.00 | 0.00 | 0.00 | 78 | |
| 20260506204003 | 6 | 104 | 3.2 | 8.0 | 0.00 | 0.00 | 0.00 | 78 | |
| 20260506203904 | 6 | 103 | 3.2 | 8.0 | 0.00 | 0.00 | 0.00 | 78 | |
| 20260506203803 | 6 | 102 | 3.2 | 8.0 | 0.00 | 0.00 | 0.00 | 78 | |
| 20260506203703 | 6 | 102 | 4.8 | 9.7 | 0.00 | 0.00 | 0.00 | 77 | |
| 20260506203603 | 6 | 102 | 4.8 | 9.7 | 0.00 | 0.00 | 0.00 | 77 | |
| 20260506203503 | 6 | 103 | 4.8 | 9.7 | 0.00 | 0.00 | 0.00 | 77 | |
| 20260506203403 | 6 | 103 | 6.4 | 9.7 | 0.00 | 0.00 | 0.00 | 77 | |
| 20260506203302 | 6 | 103 | 6.4 | 9.7 | 0.00 | 0.00 | 0.00 | 77 | |
| 20260506203203 | 6 | 103 | 6.4 | 9.7 | 0.00 | 0.00 | 0.00 | 77 | |
| 20260506203103 | 6 | 102 | 6.4 | 9.7 | 0.00 | 0.00 | 0.00 | 77 | |
| 20260506203003 | 6 | 102 | 6.4 | 11.3 | 0.00 | 0.00 | 0.00 | 77 | |
| 20260506202903 | 6 | 102 | 6.4 | 11.3 | 0.00 | 0.00 | 0.00 | 77 | |
| 20260506202824 | 6 | 103 | 6.4 | 11.3 | 0.00 | 0.00 | 0.00 | 77 | |
| 20260506202703 | 6 | 104 | 6.4 | 11.3 | 0.00 | 0.00 | 0.00 | 77 | |
| 20260506202603 | 6 | 104 | 6.4 | 11.3 | 0.00 | 0.00 | 0.00 | 77 | |
| 20260506202503 | 6 | 103 | 6.4 | 11.3 | 0.00 | 0.00 | 0.00 | 77 | |
| 20260506202403 | 6 | 102 | 6.4 | 11.3 | 0.00 | 0.00 | 0.00 | 77 | |
| 20260506202306 | 6 | 103 | 6.4 | 11.3 | 0.00 | 0.00 | 0.00 | 77 | |
| 20260506202203 | 6 | 104 | 8.0 | 11.3 | 0.00 | 0.00 | 0.00 | 77 | |
| 20260506202124 | 6 | 104 | 8.0 | 11.3 | 0.00 | 0.00 | 0.00 | 77 | |
| 20260506202003 | 6 | 104 | 8.0 | 11.3 | 0.00 | 0.00 | 0.00 | 76 | |
| 20260506201903 | 6 | 105 | 8.0 | 11.3 | 0.00 | 0.00 | 0.00 | 76 | |
| 20260506201803 | 6 | 105 | 8.0 | 11.3 | 0.00 | 0.00 | 0.00 | 76 | |
| 20260506201703 | 6 | 104 | 8.0 | 11.3 | 0.00 | 0.00 | 0.00 | 76 | |
| 20260506201603 | 6 | 104 | 8.0 | 11.3 | 0.00 | 0.00 | 0.00 | 76 | |
| 20260506201503 | 6 | 104 | 8.0 | 11.3 | 0.00 | 0.00 | 0.00 | 76 | |
| 20260506201403 | 6 | 105 | 8.0 | 11.3 | 0.00 | 0.00 | 0.00 | 76 | |
| 20260506201303 | 6 | 105 | 6.4 | 11.3 | 0.00 | 0.00 | 0.00 | 76 | |
| 20260506201224 | 7 | 105 | 6.4 | 11.3 | 0.00 | 0.00 | 0.00 | 76 | |
| 20260506201103 | 6 | 105 | 6.4 | 11.3 | 0.00 | 0.00 | 0.00 | 76 | |
| 20260506201024 | 7 | 106 | 6.4 | 12.9 | 0.00 | 0.00 | 0.00 | 76 | |
| 20260506200904 | 7 | 105 | 8.0 | 12.9 | 0.00 | 0.00 | 0.00 | 76 | |
| 20260506200824 | 7 | 105 | 8.0 | 12.9 | 0.00 | 0.00 | 0.00 | 76 | |
| 20260506200703 | 7 | 105 | 8.0 | 12.9 | 0.00 | 0.00 | 0.00 | 76 | |
| 20260506200603 | 7 | 106 | 8.0 | 12.9 | 0.00 | 0.00 | 0.00 | 76 | |
| 20260506200503 | 7 | 105 | 8.0 | 12.9 | 0.00 | 0.00 | 0.00 | 76 | |
| 20260506200403 | 7 | 105 | 8.0 | 12.9 | 0.00 | 0.00 | 0.00 | 76 | |
| 20260506200304 | 7 | 104 | 8.0 | 12.9 | 0.00 | 0.00 | 0.00 | 76 | |
| 20260506200224 | 7 | 104 | 8.0 | 12.9 | 0.00 | 0.00 | 0.00 | 75 | |
| 20260506200003 | 7 | 103 | 8.0 | 11.3 | 0.00 | 0.00 | 0.00 | 75 | |
| 20260506195903 | 7 | 102 | 8.0 | 12.9 | 0.00 | 0.00 | 0.00 | 75 | |
| 20260506195803 | 7 | 102 | 8.0 | 12.9 | 0.00 | 0.00 | 0.00 | 75 | |
| 20260506195703 | 7 | 101 | 8.0 | 12.9 | 0.00 | 0.00 | 0.00 | 75 | |
| 20260506195603 | 7 | 101 | 8.0 | 12.9 | 0.00 | 0.00 | 0.00 | 75 | |
| 20260506195503 | 7 | 102 | 8.0 | 12.9 | 0.00 | 0.00 | 0.00 | 75 | |
| 20260506195403 | 7 | 103 | 8.0 | 12.9 | 0.00 | 0.00 | 0.00 | 75 | |
| 20260506195305 | 7 | 103 | 8.0 | 12.9 | 0.00 | 0.00 | 0.00 | 75 | |
| 20260506195203 | 7 | 103 | 8.0 | 12.9 | 0.00 | 0.00 | 0.00 | 75 | |
| 20260506195103 | 7 | 103 | 8.0 | 12.9 | 0.00 | 0.00 | 0.00 | 75 | |
| 20260506195024 | 7 | 103 | 8.0 | 12.9 | 0.00 | 0.00 | 0.00 | 75 | |
| 20260506194903 | 7 | 104 | 8.0 | 12.9 | 0.00 | 0.00 | 0.00 | 75 | |
| 20260506194803 | 7 | 104 | 8.0 | 12.9 | 0.00 | 0.00 | 0.00 | 74 | |
| 20260506194703 | 7 | 105 | 8.0 | 12.9 | 0.00 | 0.00 | 0.00 | 74 | |
| 20260506194624 | 7 | 105 | 8.0 | 12.9 | 0.00 | 0.00 | 0.00 | 74 | |
| 20260506194503 | 7 | 105 | 8.0 | 12.9 | 0.00 | 0.00 | 0.00 | 74 | |
| 20260506194403 | 7 | 104 | 9.7 | 14.5 | 0.00 | 0.00 | 0.00 | 74 | |
| 20260506194324 | 7 | 105 | 9.7 | 14.5 | 0.00 | 0.00 | 0.00 | 74 | |
| 20260506194224 | 7 | 104 | 9.7 | 14.5 | 0.00 | 0.00 | 0.00 | 74 | |
| 20260506194103 | 7 | 104 | 9.7 | 14.5 | 0.00 | 0.00 | 0.00 | 74 | |
| 20260506194003 | 7 | 103 | 9.7 | 14.5 | 0.00 | 0.00 | 0.00 | 74 | |
| 20260506193924 | 7 | 104 | 9.7 | 14.5 | 0.00 | 0.00 | 0.00 | 74 | |
| 20260506193803 | 7 | 103 | 9.7 | 14.5 | 0.00 | 0.00 | 0.00 | 74 | |
| 20260506193703 | 7 | 103 | 9.7 | 14.5 | 0.00 | 0.00 | 0.00 | 74 | |
| 20260506193603 | 7 | 103 | 9.7 | 14.5 | 0.00 | 0.00 | 0.00 | 74 | |
| 20260506193524 | 7 | 103 | 9.7 | 14.5 | 0.00 | 0.00 | 0.00 | 74 | |
| 20260506193424 | 7 | 103 | 9.7 | 14.5 | 0.00 | 0.00 | 0.00 | 74 | |
| 20260506193303 | 7 | 103 | 9.7 | 14.5 | 0.00 | 0.00 | 0.00 | 74 | |
| 20260506193224 | 7 | 102 | 9.7 | 14.5 | 0.00 | 0.00 | 0.00 | 74 | |
| 20260506193103 | 7 | 104 | 8.0 | 14.5 | 0.00 | 0.00 | 0.00 | 74 | |
| 20260506193003 | 7 | 105 | 8.0 | 14.5 | 0.00 | 0.00 | 0.00 | 74 | |
| 20260506192904 | 7 | 105 | 8.0 | 14.5 | 0.00 | 0.00 | 0.00 | 74 | |
| 20260506192824 | 7 | 105 | 8.0 | 14.5 | 0.00 | 0.00 | 0.00 | 74 | |
| 20260506192703 | 7 | 105 | 8.0 | 14.5 | 0.00 | 0.00 | 0.00 | 74 | |
| 20260506192624 | 7 | 105 | 8.0 | 14.5 | 0.00 | 0.00 | 0.00 | 74 | |
| 20260506192503 | 7 | 106 | 8.0 | 14.5 | 0.00 | 0.00 | 0.00 | 73 | |
| 20260506192403 | 7 | 107 | 8.0 | 17.7 | 0.00 | 0.00 | 0.00 | 73 | |
| 20260506192305 | 7 | 107 | 8.0 | 17.7 | 0.00 | 0.00 | 0.00 | 74 | |
| 20260506192203 | 7 | 107 | 8.0 | 17.7 | 0.00 | 0.00 | 0.00 | 74 | |
| 20260506192103 | 7 | 106 | 9.7 | 17.7 | 0.00 | 0.00 | 0.00 | 73 | |
| 20260506192003 | 7 | 105 | 9.7 | 17.7 | 0.00 | 0.00 | 0.00 | 73 | |
| 20260506191903 | 7 | 105 | 9.7 | 17.7 | 0.00 | 0.00 | 0.00 | 73 | |
| 20260506191803 | 7 | 104 | 9.7 | 17.7 | 0.00 | 0.00 | 0.00 | 73 | |
| 20260506191703 | 7 | 104 | 9.7 | 17.7 | 0.00 | 0.00 | 0.00 | 73 | |
| 20260506191603 | 7 | 104 | 11.3 | 17.7 | 0.00 | 0.00 | 0.00 | 73 | |
| 20260506191503 | 7 | 104 | 11.3 | 17.7 | 0.00 | 0.00 | 0.00 | 73 | |
| 20260506191424 | 7 | 102 | 11.3 | 17.7 | 0.00 | 0.00 | 0.00 | 73 | |
| 20260506191303 | 7 | 101 | 11.3 | 17.7 | 0.00 | 0.00 | 0.00 | 73 | |
| 20260506191224 | 7 | 100 | 11.3 | 17.7 | 0.00 | 0.00 | 0.00 | 73 | |
| 20260506191103 | 7 | 100 | 11.3 | 17.7 | 0.00 | 0.00 | 0.00 | 73 | |
| 20260506191003 | 7 | 101 | 11.3 | 17.7 | 0.00 | 0.00 | 0.00 | 73 | |
| 20260506190904 | 7 | 101 | 9.7 | 17.7 | 0.00 | 0.00 | 0.00 | 73 | |
| 20260506190803 | 7 | 101 | 9.7 | 17.7 | 0.00 | 0.00 | 0.00 | 73 | |
| 20260506190703 | 7 | 101 | 9.7 | 17.7 | 0.00 | 0.00 | 0.00 | 73 | |
| 20260506190603 | 7 | 102 | 9.7 | 17.7 | 0.00 | 0.00 | 0.00 | 73 | |
| 20260506190503 | 7 | 101 | 9.7 | 17.7 | 0.00 | 0.00 | 0.00 | 73 | |
| 20260506190404 | 7 | 103 | 9.7 | 17.7 | 0.00 | 0.00 | 0.00 | 73 | |
| 20260506190303 | 8 | 104 | 9.7 | 16.1 | 0.00 | 0.00 | 0.00 | 73 | |
| 20260506190203 | 8 | 105 | 9.7 | 16.1 | 0.00 | 0.00 | 0.00 | 73 | |
| 20260506190124 | 8 | 105 | 9.7 | 16.1 | 0.00 | 0.00 | 0.00 | 73 | |
| 20260506190024 | 8 | 105 | 9.7 | 17.7 | 0.00 | 0.00 | 0.00 | 73 | |
| 20260506185924 | 8 | 105 | 11.3 | 17.7 | 0.00 | 0.00 | 0.00 | 73 | |
| 20260506185803 | 8 | 105 | 11.3 | 17.7 | 0.00 | 0.00 | 0.00 | 73 | |
| 20260506185703 | 8 | 104 | 11.3 | 20.9 | 0.00 | 0.00 | 0.00 | 72 | |
| 20260506185603 | 8 | 103 | 11.3 | 20.9 | 0.00 | 0.00 | 0.00 | 72 | |
| 20260506185504 | 8 | 104 | 11.3 | 20.9 | 0.00 | 0.00 | 0.00 | 72 | |
| 20260506185403 | 8 | 103 | 11.3 | 20.9 | 0.00 | 0.00 | 0.00 | 72 | |
| 20260506185306 | 8 | 104 | 12.9 | 20.9 | 0.00 | 0.00 | 0.00 | 72 | |
| 20260506185203 | 8 | 104 | 11.3 | 20.9 | 0.00 | 0.00 | 0.00 | 72 | |
| 20260506185103 | 8 | 104 | 11.3 | 20.9 | 0.00 | 0.00 | 0.00 | 72 | |
| 20260506185003 | 8 | 104 | 11.3 | 20.9 | 0.00 | 0.00 | 0.00 | 72 | |
| 20260506184903 | 8 | 104 | 11.3 | 20.9 | 0.00 | 0.00 | 0.00 | 72 | |
| 20260506184803 | 8 | 104 | 11.3 | 20.9 | 0.00 | 0.00 | 0.00 | 72 | |
| 20260506184703 | 8 | 104 | 11.3 | 19.3 | 0.00 | 0.00 | 0.00 | 72 | |
| 20260506184604 | 8 | 104 | 11.3 | 19.3 | 0.00 | 0.00 | 0.00 | 71 | |
| 20260506184503 | 8 | 104 | 11.3 | 19.3 | 0.00 | 0.00 | 0.00 | 71 | |
| 20260506184403 | 8 | 104 | 11.3 | 19.3 | 0.00 | 0.00 | 0.00 | 71 | |
| 20260506184324 | 8 | 103 | 11.3 | 19.3 | 0.00 | 0.00 | 0.00 | 71 | |
| 20260506184224 | 8 | 103 | 12.9 | 19.3 | 0.00 | 0.00 | 0.00 | 71 | |
| 20260506184103 | 8 | 102 | 12.9 | 19.3 | 0.00 | 0.00 | 0.00 | 71 | |
| 20260506184024 | 8 | 102 | 12.9 | 19.3 | 0.00 | 0.00 | 0.00 | 71 | |
| 20260506183925 | 8 | 103 | 12.9 | 19.3 | 0.00 | 0.00 | 0.00 | 70 | |
| 20260506183803 | 8 | 103 | 12.9 | 19.3 | 0.00 | 0.00 | 0.00 | 70 | |
| 20260506183703 | 8 | 103 | 12.9 | 20.9 | 0.00 | 0.00 | 0.00 | 70 | |
| 20260506183603 | 8 | 103 | 14.5 | 22.5 | 0.00 | 0.00 | 0.00 | 70 | |
| 20260506183524 | 8 | 102 | 14.5 | 22.5 | 0.00 | 0.00 | 0.00 | 70 | |
| 20260506183403 | 8 | 101 | 14.5 | 22.5 | 0.00 | 0.00 | 0.00 | 70 | |
| 20260506183303 | 8 | 102 | 14.5 | 22.5 | 0.00 | 0.00 | 0.00 | 69 | |
| 20260506183203 | 8 | 101 | 14.5 | 22.5 | 0.00 | 0.00 | 0.00 | 69 | |
| 20260506183124 | 8 | 101 | 14.5 | 22.5 | 0.00 | 0.00 | 0.00 | 69 | |
| 20260506183005 | 8 | 101 | 14.5 | 22.5 | 0.00 | 0.00 | 0.00 | 69 | |
| 20260506182903 | 8 | 101 | 14.5 | 22.5 | 0.00 | 0.00 | 0.00 | 69 | |
| 20260506182803 | 8 | 102 | 14.5 | 22.5 | 0.00 | 0.00 | 0.00 | 69 | |
| 20260506182703 | 8 | 103 | 14.5 | 22.5 | 0.00 | 0.00 | 0.00 | 68 | |
| 20260506182603 | 8 | 103 | 12.9 | 22.5 | 0.00 | 0.00 | 0.00 | 68 | |
| 20260506182503 | 8 | 103 | 12.9 | 22.5 | 0.00 | 0.00 | 0.00 | 68 | |
| 20260506182403 | 8 | 101 | 12.9 | 20.9 | 0.00 | 0.00 | 0.00 | 68 | |
| 20260506182324 | 8 | 101 | 12.9 | 22.5 | 0.00 | 0.00 | 0.00 | 68 | |
| 20260506182203 | 8 | 101 | 12.9 | 22.5 | 0.00 | 0.00 | 0.00 | 68 | |
| 20260506182103 | 8 | 101 | 12.9 | 22.5 | 0.00 | 0.00 | 0.00 | 67 | |
| 20260506182003 | 8 | 100 | 12.9 | 22.5 | 0.00 | 0.00 | 0.00 | 67 | |
| 20260506181903 | 8 | 99 | 12.9 | 22.5 | 0.00 | 0.00 | 0.00 | 67 | |
| 20260506181825 | 8 | 99 | 12.9 | 22.5 | 0.00 | 0.00 | 0.00 | 67 | |
| 20260506181703 | 8 | 97 | 12.9 | 22.5 | 0.00 | 0.00 | 0.00 | 67 | |
| 20260506181603 | 9 | 98 | 12.9 | 22.5 | 0.00 | 0.00 | 0.00 | 66 | |
| 20260506181503 | 9 | 98 | 14.5 | 22.5 | 0.00 | 0.00 | 0.00 | 66 | |
| 20260506181425 | 9 | 99 | 14.5 | 22.5 | 0.00 | 0.00 | 0.00 | 66 | |
| 20260506181303 | 9 | 100 | 14.5 | 22.5 | 0.00 | 0.00 | 0.00 | 66 | |
| 20260506181203 | 9 | 100 | 14.5 | 22.5 | 0.00 | 0.00 | 0.00 | 66 | |
| 20260506181103 | 9 | 101 | 14.5 | 22.5 | 0.00 | 0.00 | 0.00 | 66 | |
| 20260506181003 | 9 | 100 | 14.5 | 22.5 | 0.00 | 0.00 | 0.00 | 65 | |
| 20260506180924 | 9 | 100 | 14.5 | 22.5 | 0.00 | 0.00 | 0.00 | 65 | |
| 20260506180824 | 9 | 100 | 14.5 | 22.5 | 0.00 | 0.00 | 0.00 | 65 | |
| 20260506180703 | 9 | 100 | 14.5 | 22.5 | 0.00 | 0.00 | 0.00 | 65 | |
| 20260506180603 | 9 | 100 | 14.5 | 22.5 | 0.00 | 0.00 | 0.00 | 65 | |
| 20260506180504 | 9 | 99 | 12.9 | 22.5 | 0.00 | 0.00 | 0.00 | 65 | |
| 20260506180403 | 9 | 97 | 12.9 | 22.5 | 0.00 | 0.00 | 0.00 | 66 | |
| 20260506180303 | 9 | 97 | 12.9 | 20.9 | 0.00 | 0.00 | 0.00 | 66 | |
| 20260506180224 | 9 | 95 | 12.9 | 17.7 | 0.00 | 0.00 | 0.00 | 66 | |
| 20260506180003 | 9 | 96 | 12.9 | 19.3 | 0.00 | 0.00 | 0.00 | 65 | |
| 20260506175903 | 9 | 96 | 12.9 | 19.3 | 0.00 | 0.00 | 0.00 | 66 | |
| 20260506175803 | 9 | 96 | 12.9 | 20.9 | 0.00 | 0.00 | 0.00 | 66 | |
| 20260506175703 | 9 | 97 | 12.9 | 20.9 | 0.00 | 0.00 | 0.00 | 66 | |
| 20260506175603 | 9 | 96 | 12.9 | 20.9 | 0.00 | 0.00 | 0.00 | 66 | |
| 20260506175503 | 9 | 96 | 12.9 | 20.9 | 0.00 | 0.00 | 0.00 | 66 | |
| 20260506175403 | 9 | 97 | 12.9 | 20.9 | 0.00 | 0.00 | 0.00 | 66 | |
| 20260506175306 | 9 | 97 | 12.9 | 20.9 | 0.00 | 0.00 | 0.00 | 66 | |
| 20260506175203 | 9 | 100 | 12.9 | 20.9 | 0.00 | 0.00 | 0.00 | 66 | |
| 20260506175103 | 9 | 99 | 12.9 | 20.9 | 0.00 | 0.00 | 0.00 | 67 | |
| 20260506175003 | 9 | 99 | 12.9 | 20.9 | 0.00 | 0.00 | 0.00 | 67 | |
| 20260506174903 | 9 | 100 | 12.9 | 20.9 | 0.00 | 0.00 | 0.00 | 68 | |
| 20260506174803 | 9 | 100 | 12.9 | 19.3 | 0.00 | 0.00 | 0.00 | 68 | |
| 20260506174703 | 9 | 100 | 12.9 | 19.3 | 0.00 | 0.00 | 0.00 | 69 | |
| 20260506174624 | 9 | 100 | 12.9 | 19.3 | 0.00 | 0.00 | 0.00 | 69 | |
| 20260506174524 | 9 | 102 | 12.9 | 19.3 | 0.00 | 0.00 | 0.00 | 69 | |
| 20260506174403 | 9 | 102 | 12.9 | 19.3 | 0.00 | 0.00 | 0.00 | 69 | |
| 20260506174303 | 9 | 102 | 12.9 | 19.3 | 0.00 | 0.00 | 0.00 | 69 | |
| 20260506174224 | 9 | 102 | 12.9 | 17.7 | 0.00 | 0.00 | 0.00 | 69 | |
| 20260506174103 | 9 | 101 | 12.9 | 17.7 | 0.00 | 0.00 | 0.00 | 69 | |
| 20260506174003 | 9 | 102 | 12.9 | 19.3 | 0.00 | 0.00 | 0.00 | 70 | |
| 20260506173903 | 9 | 101 | 12.9 | 19.3 | 0.00 | 0.00 | 0.00 | 70 | |
| 20260506173824 | 9 | 101 | 12.9 | 19.3 | 0.00 | 0.00 | 0.00 | 70 | |
| 20260506173703 | 9 | 100 | 12.9 | 19.3 | 0.00 | 0.00 | 0.00 | 70 | |
| 20260506173603 | 9 | 101 | 11.3 | 19.3 | 0.00 | 0.00 | 0.00 | 70 | |
| 20260506173524 | 9 | 101 | 11.3 | 19.3 | 0.00 | 0.00 | 0.00 | 70 | |
| 20260506173403 | 9 | 102 | 12.9 | 19.3 | 0.00 | 0.00 | 0.00 | 70 | |
| 20260506173303 | 9 | 102 | 12.9 | 19.3 | 0.00 | 0.00 | 0.00 | 70 | |
| 20260506173224 | 9 | 102 | 12.9 | 20.9 | 0.00 | 0.00 | 0.00 | 70 | |
| 20260506173003 | 9 | 102 | 12.9 | 20.9 | 0.00 | 0.00 | 0.00 | 70 | 1016.5 |
| 20260506172903 | 9 | 101 | 12.9 | 20.9 | 0.00 | 0.00 | 0.00 | 69 | 1016.5 |
| 20260506172804 | 9 | 99 | 12.9 | 20.9 | 0.00 | 0.00 | 0.00 | 69 | 1016.5 |
| 20260506172346 | 9 | 96 | 12.9 | 20.9 | 0.00 | 0.00 | 0.00 | 68 | |
| 20260506172247 | 9 | 95 | 12.9 | 20.9 | 0.00 | 0.00 | 0.00 | 68 | |
| 20260506172145 | 9 | 92 | 12.9 | 20.9 | 0.00 | 0.00 | 0.00 | 67 | |
| 20260506172045 | 9 | 90 | 12.9 | 20.9 | 0.00 | 0.00 | 0.00 | 67 | |
| 20260506171948 | 9 | 92 | 12.9 | 20.9 | 0.00 | 0.00 | 0.00 | 67 | |
| 20260506171908 | 9 | 91 | 11.3 | 20.9 | 0.00 | 0.00 | 0.00 | 67 | |
| 20260506171809 | 9 | 90 | 11.3 | 24.1 | 0.00 | 0.00 | 0.00 | 67 | |
| 20260506171647 | 9 | 87 | 11.3 | 24.1 | 0.00 | 0.00 | 0.00 | 67 | |
| 20260506171610 | 9 | 88 | 12.9 | 24.1 | 0.00 | 0.00 | 0.00 | 67 | |
| 20260506171446 | 9 | 89 | 12.9 | 24.1 | 0.00 | 0.00 | 0.00 | 67 | |
| 20260506171346 | 9 | 90 | 12.9 | 24.1 | 0.00 | 0.00 | 0.00 | 67 | |
| 20260506171245 | 9 | 91 | 12.9 | 24.1 | 0.00 | 0.00 | 0.00 | 67 | |
| 20260506171148 | 9 | 93 | 12.9 | 24.1 | 0.00 | 0.00 | 0.00 | 67 | |
| 20260506171045 | 9 | 92 | 12.9 | 24.1 | 0.00 | 0.00 | 0.00 | 68 | |
| 20260506170945 | 9 | 89 | 12.9 | 24.1 | 0.00 | 0.00 | 0.00 | 67 | |
| 20260506170846 | 9 | 88 | 14.5 | 24.1 | 0.00 | 0.00 | 0.00 | 68 | |
| 20260506170745 | 9 | 88 | 12.9 | 22.5 | 0.00 | 0.00 | 0.00 | 67 | |
| 20260506170645 | 9 | 90 | 14.5 | 22.5 | 0.00 | 0.00 | 0.00 | 67 | |
| 20260506170545 | 9 | 90 | 14.5 | 22.5 | 0.00 | 0.00 | 0.00 | 68 | |
| 20260506170446 | 9 | 89 | 14.5 | 22.5 | 0.00 | 0.00 | 0.00 | 68 | |
| 20260506170345 | 9 | 87 | 14.5 | 22.5 | 0.00 | 0.00 | 0.00 | 67 | |
| 20260506170245 | 9 | 88 | 14.5 | 22.5 | 0.00 | 0.00 | 0.00 | 68 | |
| 20260506170145 | 9 | 88 | 16.1 | 22.5 | 0.00 | 0.00 | 0.00 | 67 | |
| 20260506170044 | 9 | 89 | 14.5 | 22.5 | 0.00 | 0.00 | 0.00 | 68 | |
| 20260506170006 | 9 | 90 | 14.5 | 22.5 | 0.00 | 0.00 | 0.00 | 68 | |
| 20260506165906 | 10 | 90 | 14.5 | 22.5 | 0.00 | 0.00 | 0.00 | 68 | |
| 20260506165745 | 10 | 92 | 14.5 | 22.5 | 0.00 | 0.00 | 0.00 | 68 | |
| 20260506165706 | 10 | 91 | 14.5 | 22.5 | 0.00 | 0.00 | 0.00 | 68 | |
| 20260506165545 | 10 | 88 | 14.5 | 22.5 | 0.00 | 0.00 | 0.00 | 67 | |
| 20260506165444 | 10 | 88 | 14.5 | 22.5 | 0.00 | 0.00 | 0.00 | 67 | |
| 20260506165345 | 10 | 88 | 14.5 | 22.5 | 0.00 | 0.00 | 0.00 | 67 | |
| 20260506165245 | 10 | 86 | 14.5 | 20.9 | 0.00 | 0.00 | 0.00 | 67 | |
| 20260506165145 | 10 | 84 | 12.9 | 19.3 | 0.00 | 0.00 | 0.00 | 67 | |
| 20260506165045 | 10 | 82 | 12.9 | 19.3 | 0.00 | 0.00 | 0.00 | 67 | |
| 20260506164945 | 10 | 84 | 12.9 | 19.3 | 0.00 | 0.00 | 0.00 | 66 | |
| 20260506164844 | 10 | 84 | 14.5 | 19.3 | 0.00 | 0.00 | 0.00 | 66 | |
| 20260506164806 | 10 | 85 | 12.9 | 19.3 | 0.00 | 0.00 | 0.00 | 66 | |
| 20260506164645 | 10 | 85 | 14.5 | 22.5 | 0.00 | 0.00 | 0.00 | 66 | |
| 20260506164606 | 10 | 86 | 14.5 | 22.5 | 0.00 | 0.00 | 0.00 | 66 | |
| 20260506164445 | 10 | 88 | 14.5 | 22.5 | 0.00 | 0.00 | 0.00 | 66 | |
| 20260506164346 | 10 | 90 | 14.5 | 22.5 | 0.00 | 0.00 | 0.00 | 66 | |
| 20260506164245 | 10 | 93 | 14.5 | 25.7 | 0.00 | 0.00 | 0.00 | 65 | |
| 20260506164145 | 10 | 94 | 14.5 | 25.7 | 0.00 | 0.00 | 0.00 | 65 | |
| 20260506164045 | 10 | 97 | 14.5 | 25.7 | 0.00 | 0.00 | 0.00 | 65 | |
| 20260506163945 | 10 | 98 | 16.1 | 25.7 | 0.00 | 0.00 | 0.00 | 65 | |
| 20260506163845 | 10 | 98 | 14.5 | 25.7 | 0.00 | 0.00 | 0.00 | 65 | |
| 20260506163806 | 10 | 98 | 14.5 | 25.7 | 0.00 | 0.00 | 0.00 | 65 | |
| 20260506163645 | 10 | 97 | 14.5 | 25.7 | 0.00 | 0.00 | 0.00 | 66 | |
| 20260506163545 | 10 | 97 | 14.5 | 25.7 | 0.00 | 0.00 | 0.00 | 66 | |
| 20260506163506 | 10 | 98 | 14.5 | 25.7 | 0.00 | 0.00 | 0.00 | 66 | |
| 20260506163345 | 10 | 99 | 16.1 | 29.0 | 0.00 | 0.00 | 0.00 | 66 | |
| 20260506163245 | 10 | 98 | 14.5 | 29.0 | 0.00 | 0.00 | 0.00 | 65 | |
| 20260506163206 | 10 | 97 | 14.5 | 29.0 | 0.00 | 0.00 | 0.00 | 65 | |
| 20260506163045 | 10 | 94 | 14.5 | 29.0 | 0.00 | 0.00 | 0.00 | 66 | |
| 20260506162945 | 10 | 92 | 14.5 | 29.0 | 0.00 | 0.00 | 0.00 | 66 | |
| 20260506162845 | 10 | 92 | 14.5 | 29.0 | 0.00 | 0.00 | 0.00 | 66 | |
| 20260506162745 | 10 | 92 | 14.5 | 29.0 | 0.00 | 0.00 | 0.00 | 66 | |
| 20260506162645 | 10 | 91 | 14.5 | 29.0 | 0.00 | 0.00 | 0.00 | 66 | |
| 20260506162545 | 10 | 90 | 14.5 | 29.0 | 0.00 | 0.00 | 0.00 | 65 | |
| 20260506162445 | 10 | 87 | 14.5 | 24.1 | 0.00 | 0.00 | 0.00 | 65 | |
| 20260506162345 | 10 | 84 | 14.5 | 24.1 | 0.00 | 0.00 | 0.00 | 65 |